DW2923 Weather Reports


Display with metric or nautical units.
time (UTC)temp
F
wind
direction
speed
MPH
gust
MPH
rain 1hr
in
rain 24hr
in
rain mn
in
humidity
%
barometer
mb
20180919223319 69 254 4.0 10.0 0.00 0.00 0.00 48 1017.2
20180919223231 69 298 4.0 10.0 0.00 0.00 0.00 47 1017.2
20180919223119 69 310 4.0 10.0 0.00 0.00 0.00 47 1017.1
20180919223028 69 247 5.0 10.0 0.00 0.00 0.00 47 1017.1
20180919222916 69 250 6.0 10.0 0.00 0.00 0.00 47 1017.2
20180919222824 69 257 6.0 10.0 0.00 0.00 0.00 48 1017.2
20180919222717 69 294 3.0 9.0 0.00 0.00 0.00 49 1017.2
20180919222625 69 313 2.0 7.0 0.00 0.00 0.00 48 1017.2
20180919222533 68 259 1.0 7.0 0.00 0.00 0.00 48 1017.2
20180919222420 68 294 1.0 7.0 0.00 0.00 0.00 48 1017.2
20180919222329 68 241 2.0 7.0 0.00 0.00 0.00 48 1017.2
20180919222221 68 266 3.0 7.0 0.00 0.00 0.00 48 1017.2
20180919222112 68 227 3.0 7.0 0.00 0.00 0.00 48 1017.2
20180919222024 68 196 3.0 5.0 0.00 0.00 0.00 48 1017.2
20180919221931 68 194 3.0 6.0 0.00 0.00 0.00 48 1017.2
20180919221820 68 220 4.0 7.0 0.00 0.00 0.00 48 1017.2
20180919221729 68 278 3.0 9.0 0.00 0.00 0.00 48 1017.3
20180919221620 68 251 1.0 9.0 0.00 0.00 0.00 48 1017.3
20180919221531 68 123 0.0 9.0 0.00 0.00 0.00 48 1017.3
20180919221419 68 123 0.0 9.0 0.00 0.00 0.00 48 1017.3
20180919221332 68 84 2.0 9.0 0.00 0.00 0.00 48 1017.3
20180919221220 68 281 2.0 9.0 0.00 0.00 0.00 47 1017.3
20180919221132 68 192 3.0 9.0 0.00 0.00 0.00 47 1017.3
20180919221020 68 179 4.0 9.0 0.00 0.00 0.00 48 1017.3
20180919220928 68 267 5.0 9.0 0.00 0.00 0.00 47 1017.3
20180919220816 68 225 5.0 7.0 0.00 0.00 0.00 47 1017.3
20180919220725 68 183 2.0 7.0 0.00 0.00 0.00 48 1017.3
20180919220617 68 259 1.0 7.0 0.00 0.00 0.00 48 1017.4
20180919220525 68 223 3.0 7.0 0.00 0.00 0.00 48 1017.3
20180919220435 68 183 4.0 7.0 0.00 0.00 0.00 47 1017.3
20180919220322 68 202 2.0 7.0 0.00 0.00 0.00 48 1017.4
20180919220227 68 221 2.0 7.0 0.00 0.00 0.00 48 1017.4
20180919220129 68 252 5.0 7.0 0.00 0.00 0.00 48 1017.4
20180919220024 68 225 5.0 6.0 0.00 0.00 0.00 48 1017.5
20180919215914 68 258 3.0 6.0 0.00 0.00 0.00 48 1017.4
20180919215826 68 296 2.0 6.0 0.00 0.00 0.00 49 1017.4
20180919215714 68 191 2.0 6.0 0.00 0.00 0.00 49 1017.4
20180919215626 68 171 3.0 7.0 0.00 0.00 0.00 49 1017.4
20180919215521 68 267 3.0 7.0 0.00 0.00 0.00 49 1017.4
20180919215430 67 221 3.0 7.0 0.00 0.00 0.00 49 1017.4
20180919215318 67 317 2.0 7.0 0.00 0.00 0.00 49 1017.5
20180919215226 67 289 1.0 7.0 0.00 0.00 0.00 49 1017.5
20180919215135 67 275 1.0 7.0 0.00 0.00 0.00 49 1017.5
20180919215027 67 191 2.0 7.0 0.00 0.00 0.00 49 1017.6
20180919214934 67 219 4.0 7.0 0.00 0.00 0.00 50 1017.6
20180919214823 67 175 4.0 7.0 0.00 0.00 0.00 50 1017.6
20180919214734 67 250 4.0 6.0 0.00 0.00 0.00 50 1017.6
20180919214622 67 198 1.0 6.0 0.00 0.00 0.00 50 1017.6
20180919214514 67 292 0.0 6.0 0.00 0.00 0.00 50 1017.6
20180919214425 67 292 2.0 7.0 0.00 0.00 0.00 50 1017.5
20180919214334 68 273 3.0 7.0 0.00 0.00 0.00 50 1017.5
20180919214222 68 294 2.0 7.0 0.00 0.00 0.00 49 1017.6
20180919214130 68 289 4.0 9.0 0.00 0.00 0.00 49 1017.6
20180919214023 68 326 3.0 9.0 0.00 0.00 0.00 49 1017.5
20180919213934 68 234 1.0 11.0 0.00 0.00 0.00 49 1017.5
20180919213821 67 206 3.0 11.0 0.00 0.00 0.00 50 1017.6
20180919213730 67 214 4.0 11.0 0.00 0.00 0.00 50 1017.6
20180919213618 67 292 4.0 11.0 0.00 0.00 0.00 50 1017.6
20180919213526 67 342 4.0 11.0 0.00 0.00 0.00 50 1017.7
20180919213418 67 317 4.0 11.0 0.00 0.00 0.00 49 1017.6
20180919213330 67 309 6.0 11.0 0.00 0.00 0.00 50 1017.6
20180919213218 67 271 6.0 11.0 0.00 0.00 0.00 50 1017.7
20180919213126 67 317 6.0 11.0 0.00 0.00 0.00 50 1017.7
20180919213034 67 296 3.0 10.0 0.00 0.00 0.00 50 1017.7
20180919212926 67 296 5.0 10.0 0.00 0.00 0.00 51 1017.7
20180919212817 67 293 6.0 10.0 0.00 0.00 0.00 51 1017.7
20180919212726 67 314 3.0 10.0 0.00 0.00 0.00 51 1017.7
20180919212617 67 314 4.0 10.0 0.00 0.00 0.00 51 1017.7
20180919212528 67 325 3.0 10.0 0.00 0.00 0.00 51 1017.7
20180919212423 67 178 3.0 10.0 0.00 0.00 0.00 51 1017.7
20180919212333 67 192 3.0 10.0 0.00 0.00 0.00 51 1017.7
20180919212220 67 234 4.0 10.0 0.00 0.00 0.00 50 1017.8
20180919212128 67 247 6.0 10.0 0.00 0.00 0.00 51 1017.8
20180919212017 67 236 6.0 10.0 0.00 0.00 0.00 51 1017.7
20180919211929 67 263 6.0 10.0 0.00 0.00 0.00 51 1017.7
20180919211820 67 261 4.0 9.0 0.00 0.00 0.00 51 1017.7
20180919211729 67 286 3.0 9.0 0.00 0.00 0.00 51 1017.7
20180919211617 67 313 4.0 9.0 0.00 0.00 0.00 52 1017.7
20180919211525 67 331 2.0 9.0 0.00 0.00 0.00 52 1017.7
20180919211418 67 307 4.0 9.0 0.00 0.00 0.00 51 1017.7
20180919211326 67 315 6.0 10.0 0.00 0.00 0.00 51 1017.7
20180919211235 67 315 4.0 10.0 0.00 0.00 0.00 52 1017.7
20180919211122 67 319 4.0 10.0 0.00 0.00 0.00 52 1017.7
20180919211031 67 315 4.0 10.0 0.00 0.00 0.00 52 1017.7
20180919210918 67 299 2.0 10.0 0.00 0.00 0.00 52 1017.8
20180919210831 67 312 3.0 10.0 0.00 0.00 0.00 53 1017.8
20180919210719 67 294 4.0 10.0 0.00 0.00 0.00 52 1017.8
20180919210630 67 307 3.0 10.0 0.00 0.00 0.00 52 1017.8
20180919210522 67 254 7.0 10.0 0.00 0.00 0.00 52 1017.8
20180919210430 67 248 4.0 9.0 0.00 0.00 0.00 53 1017.8
20180919210321 67 312 3.0 9.0 0.00 0.00 0.00 53 1017.8
20180919210231 67 297 3.0 9.0 0.00 0.00 0.00 53 1017.8
20180919210128 67 293 3.0 9.0 0.00 0.00 0.00 53 1017.8
20180919210025 67 278 3.0 9.0 0.00 0.00 0.00 52 1017.7
20180919205933 67 282 5.0 9.0 0.00 0.00 0.00 53 1017.7
20180919205826 67 338 5.0 8.0 0.00 0.00 0.00 53 1017.8
20180919205717 67 313 2.0 8.0 0.00 0.00 0.00 53 1017.8
20180919205625 67 284 2.0 8.0 0.00 0.00 0.00 53 1017.7
20180919205533 67 254 2.0 8.0 0.00 0.00 0.00 53 1017.7
20180919205421 67 302 3.0 9.0 0.00 0.00 0.00 53 1017.8
20180919205313 66 348 6.0 9.0 0.00 0.00 0.00 54 1017.7
20180919205225 66 292 4.0 9.0 0.00 0.00 0.00 53 1017.8
20180919205136 66 13 3.0 9.0 0.00 0.00 0.00 54 1017.8
20180919205024 67 344 3.0 9.0 0.00 0.00 0.00 54 1017.8
20180919204932 67 11 2.0 9.0 0.00 0.00 0.00 54 1017.8
20180919204820 67 252 2.0 9.0 0.00 0.00 0.00 54 1017.8
20180919204733 67 314 3.0 10.0 0.00 0.00 0.00 53 1017.8
20180919204620 67 305 5.0 10.0 0.00 0.00 0.00 54 1017.8
20180919204529 67 308 5.0 10.0 0.00 0.00 0.00 54 1017.8
20180919204417 67 247 3.0 10.0 0.00 0.00 0.00 53 1017.8
20180919204327 67 290 5.0 10.0 0.00 0.00 0.00 53 1017.8
20180919204221 67 292 6.0 10.0 0.00 0.00 0.00 53 1017.8
20180919204130 67 328 5.0 10.0 0.00 0.00 0.00 53 1017.8
20180919204018 67 319 6.0 10.0 0.00 0.00 0.00 53 1017.8
20180919203925 67 277 5.0 10.0 0.00 0.00 0.00 53 1017.9
20180919203833 67 331 3.0 10.0 0.00 0.00 0.00 54 1017.9
20180919203725 67 273 4.0 10.0 0.00 0.00 0.00 53 1017.8
20180919203613 67 248 3.0 10.0 0.00 0.00 0.00 53 1017.8
20180919203524 66 323 2.0 10.0 0.00 0.00 0.00 53 1017.8
20180919203415 66 180 4.0 10.0 0.00 0.00 0.00 54 1017.8
20180919203328 66 252 4.0 10.0 0.00 0.00 0.00 53 1017.8
20180919203220 66 284 5.0 10.0 0.00 0.00 0.00 52 1017.8
20180919203128 66 288 6.0 10.0 0.00 0.00 0.00 53 1017.8
20180919203016 66 240 5.0 9.0 0.00 0.00 0.00 54 1017.9
20180919202924 66 281 4.0 9.0 0.00 0.00 0.00 54 1017.9
20180919202835 66 348 2.0 9.0 0.00 0.00 0.00 54 1017.9
20180919202724 66 331 5.0 9.0 0.00 0.00 0.00 55 1017.8
20180919202616 66 313 6.0 9.0 0.00 0.00 0.00 55 1017.7
20180919202525 66 298 4.0 7.0 0.00 0.00 0.00 56 1017.9
20180919202436 66 292 1.0 7.0 0.00 0.00 0.00 57 1017.9
20180919202324 66 144 1.0 9.0 0.00 0.00 0.00 55 1017.9
20180919202232 66 144 1.0 9.0 0.00 0.00 0.00 56 1017.9
20180919202124 66 203 3.0 9.0 0.00 0.00 0.00 57 1017.8
20180919202035 66 198 3.0 9.0 0.00 0.00 0.00 56 1017.8
20180919201923 66 260 2.0 9.0 0.00 0.00 0.00 56 1018.0
20180919201832 66 299 3.0 9.0 0.00 0.00 0.00 56 1018.0
20180919201720 65 194 3.0 9.0 0.00 0.00 0.00 55 1017.9
20180919201632 65 254 3.0 9.0 0.00 0.00 0.00 55 1017.9
20180919201520 65 251 4.0 9.0 0.00 0.00 0.00 55 1018.0
20180919201429 65 198 3.0 10.0 0.00 0.00 0.00 55 1018.0
20180919201316 65 254 1.0 10.0 0.00 0.00 0.00 55 1018.0
20180919201225 65 299 3.0 10.0 0.00 0.00 0.00 55 1017.9
20180919201117 65 302 4.0 10.0 0.00 0.00 0.00 55 1018.0
20180919201028 65 294 6.0 10.0 0.00 0.00 0.00 55 1018.0
20180919200916 66 245 4.0 10.0 0.00 0.00 0.00 55 1018.0
20180919200824 66 247 4.0 10.0 0.00 0.00 0.00 55 1018.0
20180919200736 66 309 4.0 10.0 0.00 0.00 0.00 54 1018.0
20180919200623 66 314 5.0 10.0 0.00 0.00 0.00 54 1018.0
20180919200516 66 311 4.0 7.0 0.00 0.00 0.00 55 1018.0
20180919200429 66 298 6.0 7.0 0.00 0.00 0.00 55 1018.0
20180919200316 66 298 3.0 8.0 0.00 0.00 0.00 55 1018.1
20180919200225 66 319 3.0 8.0 0.00 0.00 0.00 55 1018.0
20180919200146 66 325 5.0 10.0 0.00 0.00 0.00 54 1018.0
20180919200025 65 303 3.0 10.0 0.00 0.00 0.00 55 1018.1
20180919195936 65 263 3.0 10.0 0.00 0.00 0.00 55 1018.1
20180919195824 65 292 3.0 10.0 0.00 0.00 0.00 55 1018.1
20180919195735 65 333 2.0 10.0 0.00 0.00 0.00 55 1018.1
20180919195623 65 298 5.0 10.0 0.00 0.00 0.00 54 1018.1
20180919195536 65 294 5.0 10.0 0.00 0.00 0.00 54 1018.1
20180919195424 65 305 4.0 10.0 0.00 0.00 0.00 56 1018.1
20180919195333 65 258 6.0 10.0 0.00 0.00 0.00 56 1018.1
20180919195221 65 294 4.0 10.0 0.00 0.00 0.00 57 1018.1
20180919195129 65 289 4.0 10.0 0.00 0.00 0.00 56 1018.1
20180919195021 65 244 6.0 10.0 0.00 0.00 0.00 56 1018.1
20180919194932 65 235 3.0 9.0 0.00 0.00 0.00 57 1018.1
20180919194820 65 204 2.0 9.0 0.00 0.00 0.00 58 1018.1
20180919194732 65 276 3.0 9.0 0.00 0.00 0.00 57 1018.1
20180919194620 65 248 6.0 9.0 0.00 0.00 0.00 57 1018.1
20180919194529 65 250 5.0 9.0 0.00 0.00 0.00 58 1018.1
20180919194420 65 192 4.0 7.0 0.00 0.00 0.00 60 1018.1
20180919194329 65 232 3.0 7.0 0.00 0.00 0.00 60 1018.1
20180919194217 65 254 2.0 9.0 0.00 0.00 0.00 60 1018.1
20180919194124 65 236 2.0 10.0 0.00 0.00 0.00 60 1018.1
20180919194033 65 248 3.0 10.0 0.00 0.00 0.00 60 1018.1
20180919193925 65 246 5.0 10.0 0.00 0.00 0.00 61 1018.2
20180919193816 65 298 2.0 10.0 0.00 0.00 0.00 61 1018.2
20180919193725 64 306 3.0 10.0 0.00 0.00 0.00 61 1018.3
20180919193616 64 306 4.0 10.0 0.00 0.00 0.00 61 1018.2
20180919193527 64 304 4.0 10.0 0.00 0.00 0.00 61 1018.2
20180919193421 64 306 4.0 10.0 0.00 0.00 0.00 61 1018.2
20180919193332 64 294 6.0 10.0 0.00 0.00 0.00 61 1018.2
20180919193219 64 316 4.0 10.0 0.00 0.00 0.00 62 1018.3
20180919193128 64 294 4.0 10.0 0.00 0.00 0.00 63 1018.2
20180919193016 64 246 3.0 10.0 0.00 0.00 0.00 62 1018.3
20180919192928 64 305 3.0 10.0 0.00 0.00 0.00 62 1018.3
20180919192816 64 219 4.0 10.0 0.00 0.00 0.00 62 1018.3
20180919192724 65 248 6.0 10.0 0.00 0.00 0.00 61 1018.3
20180919192633 65 227 7.0 9.0 0.00 0.00 0.00 62 1018.3
20180919192520 65 225 4.0 8.0 0.00 0.00 0.00 63 1018.3
20180919192430 64 281 4.0 8.0 0.00 0.00 0.00 64 1018.3
20180919192322 64 297 2.0 8.0 0.00 0.00 0.00 63 1018.3
20180919192234 64 182 2.0 9.0 0.00 0.00 0.00 63 1018.3
20180919192121 64 236 2.0 9.0 0.00 0.00 0.00 62 1018.3
20180919192032 65 236 4.0 9.0 0.00 0.00 0.00 62 1018.3
20180919191924 65 229 5.0 9.0 0.00 0.00 0.00 62 1018.3
20180919191816 65 321 3.0 9.0 0.00 0.00 0.00 62 1018.3
20180919191724 65 292 4.0 9.0 0.00 0.00 0.00 62 1018.3
20180919191635 65 301 5.0 9.0 0.00 0.00 0.00 62 1018.3
20180919191523 65 304 4.0 9.0 0.00 0.00 0.00 62 1018.3
20180919191432 65 298 3.0 9.0 0.00 0.00 0.00 62 1018.3
20180919191324 65 240 5.0 9.0 0.00 0.00 0.00 64 1018.3
20180919191233 65 317 3.0 9.0 0.00 0.00 0.00 64 1018.3
20180919191121 64 313 2.0 10.0 0.00 0.00 0.00 63 1018.3
20180919191029 64 326 3.0 10.0 0.00 0.00 0.00 63 1018.3
20180919190917 64 296 4.0 10.0 0.00 0.00 0.00 64 1018.3
20180919190829 64 291 3.0 10.0 0.00 0.00 0.00 64 1018.3
20180919190721 64 313 2.0 10.0 0.00 0.00 0.00 64 1018.4
20180919190629 64 260 3.0 10.0 0.00 0.00 0.00 64 1018.4
20180919190517 64 304 4.0 10.0 0.00 0.00 0.00 64 1018.4
20180919190426 64 290 6.0 10.0 0.00 0.00 0.00 64 1018.4
20180919190321 64 274 6.0 10.0 0.00 0.00 0.00 64 1018.4
20180919190230 64 309 3.0 6.0 0.00 0.00 0.00 65 1018.4
20180919190149 64 275 3.0 6.0 0.00 0.00 0.00 65 1018.3
20180919190023 64 338 2.0 6.0 0.00 0.00 0.00 65 1018.3
20180919185931 64 197 2.0 6.0 0.00 0.00 0.00 65 1018.3
20180919185819 64 242 2.0 6.0 0.00 0.00 0.00 65 1018.4
20180919185731 64 310 4.0 6.0 0.00 0.00 0.00 66 1018.4
20180919185619 63 269 3.0 6.0 0.00 0.00 0.00 66 1018.4
20180919185528 63 302 3.0 6.0 0.00 0.00 0.00 67 1018.3
20180919185416 63 286 1.0 6.0 0.00 0.00 0.00 67 1018.4
20180919185324 63 304 3.0 6.0 0.00 0.00 0.00 67 1018.4
20180919185216 62 306 5.0 6.0 0.00 0.00 0.00 67 1018.4
20180919185124 63 288 2.0 6.0 0.00 0.00 0.00 66 1018.4
20180919185036 63 246 4.0 6.0 0.00 0.00 0.00 68 1018.4
20180919184923 63 248 3.0 6.0 0.00 0.00 0.00 67 1018.4
20180919184832 63 218 2.0 6.0 0.00 0.00 0.00 66 1018.4
20180919184725 63 224 3.0 6.0 0.00 0.00 0.00 66 1018.5
20180919184635 63 219 4.0 6.0 0.00 0.00 0.00 66 1018.5
20180919184524 63 249 3.0 6.0 0.00 0.00 0.00 66 1018.5
20180919184432 63 233 4.0 6.0 0.00 0.00 0.00 66 1018.5
20180919184319 63 355 2.0 6.0 0.00 0.00 0.00 67 1018.5
20180919184214 63 306 4.0 6.0 0.00 0.00 0.00 67 1018.5
20180919184125 63 323 2.0 6.0 0.00 0.00 0.00 68 1018.5
20180919184017 62 271 2.0 6.0 0.00 0.00 0.00 68 1018.5
20180919183925 62 284 2.0 6.0 0.00 0.00 0.00 67 1018.5
20180919183833 62 328 2.0 6.0 0.00 0.00 0.00 67 1018.5
20180919183721 62 344 1.0 6.0 0.00 0.00 0.00 67 1018.5
20180919183633 62 355 0.0 6.0 0.00 0.00 0.00 67 1018.5
20180919183521 62 292 3.0 6.0 0.00 0.00 0.00 67 1018.5
20180919183429 62 295 4.0 6.0 0.00 0.00 0.00 68 1018.5
20180919183317 62 298 3.0 6.0 0.00 0.00 0.00 68 1018.5
20180919183226 62 236 4.0 6.0 0.00 0.00 0.00 68 1018.6
20180919183118 62 252 2.0 6.0 0.00 0.00 0.00 68 1018.6
20180919183026 62 248 2.0 6.0 0.00 0.00 0.00 68 1018.6
20180919182934 62 265 4.0 6.0 0.00 0.00 0.00 68 1018.6
20180919182822 62 250 2.0 6.0 0.00 0.00 0.00 69 1018.6
20180919182730 62 302 2.0 6.0 0.00 0.00 0.00 69 1018.6
20180919182623 62 302 3.0 6.0 0.00 0.00 0.00 68 1018.6
20180919182534 62 304 2.0 6.0 0.00 0.00 0.00 68 1018.6
20180919182422 62 196 1.0 6.0 0.00 0.00 0.00 68 1018.6
20180919182331 62 195 1.0 6.0 0.00 0.00 0.00 69 1018.6
20180919182222 62 280 1.0 6.0 0.00 0.00 0.00 70 1018.6
20180919182118 61 280 2.0 6.0 0.00 0.00 0.00 69 1018.6
20180919182026 61 255 3.0 6.0 0.00 0.00 0.00 69 1018.7
20180919181934 61 258 5.0 6.0 0.00 0.00 0.00 69 1018.7
20180919181822 61 304 3.0 6.0 0.00 0.00 0.00 69 1018.7
20180919181731 61 315 1.0 7.0 0.00 0.00 0.00 69 1018.7
20180919181618 61 314 2.0 7.0 0.00 0.00 0.00 69 1018.7
20180919181534 61 314 2.0 7.0 0.00 0.00 0.00 69 1018.7
20180919181423 61 301 3.0 7.0 0.00 0.00 0.00 70 1018.6
20180919181314 61 304 3.0 7.0 0.00 0.00 0.00 70 1018.7
20180919181226 61 314 2.0 7.0 0.00 0.00 0.00 70 1018.7
20180919181133 61 314 3.0 7.0 0.00 0.00 0.00 70 1018.7
20180919181026 61 331 3.0 7.0 0.00 0.00 0.00 70 1018.7
20180919180934 61 294 5.0 7.0 0.00 0.00 0.00 70 1018.7
20180919180822 61 292 5.0 6.0 0.00 0.00 0.00 70 1018.7
20180919180730 61 292 5.0 6.0 0.00 0.00 0.00 70 1018.7
20180919180618 61 288 2.0 5.0 0.00 0.00 0.00 70 1018.8
20180919180531 61 298 1.0 5.0 0.00 0.00 0.00 70 1018.8
20180919180418 61 298 1.0 5.0 0.00 0.00 0.00 70 1018.7
20180919180330 61 298 0.0 5.0 0.00 0.00 0.00 70 1018.7
20180919180218 61 298 0.0 5.0 0.00 0.00 0.00 69 1018.7
20180919180137 61 298 1.0 5.0 0.00 0.00 0.00 69 1018.7
20180919180015 61 298 3.0 6.0 0.00 0.00 0.00 70 1018.8
20180919175926 61 298 3.0 6.0 0.00 0.00 0.00 70 1018.8
20180919175817 61 299 3.0 6.0 0.00 0.00 0.00 70 1018.7
20180919175726 61 298 4.0 6.0 0.00 0.00 0.00 70 1018.7
20180919175617 61 306 3.0 6.0 0.00 0.00 0.00 70 1018.8
20180919175526 61 305 2.0 6.0 0.00 0.00 0.00 71 1018.8
20180919175420 61 306 1.0 6.0 0.00 0.00 0.00 70 1018.8
20180919175328 61 306 3.0 6.0 0.00 0.00 0.00 71 1018.8
20180919175216 60 292 4.0 6.0 0.00 0.00 0.00 71 1018.7
20180919175125 60 307 2.0 5.0 0.00 0.00 0.00 71 1018.7
20180919175013 60 278 2.0 5.0 0.00 0.00 0.00 70 1018.8
20180919174928 60 321 1.0 5.0 0.00 0.00 0.00 70 1018.8
20180919174816 60 311 3.0 5.0 0.00 0.00 0.00 70 1018.8
20180919174725 60 296 4.0 5.0 0.00 0.00 0.00 71 1018.8
20180919174615 60 293 3.0 5.0 0.00 0.00 0.00 71 1018.8
20180919174524 60 289 3.0 5.0 0.00 0.00 0.00 71 1018.8
20180919174419 60 238 1.0 4.0 0.00 0.00 0.00 71 1018.9
20180919174328 60 238 2.0 4.0 0.00 0.00 0.00 71 1018.9
20180919174216 60 237 3.0 5.0 0.00 0.00 0.00 72 1018.9
20180919174124 60 288 0.0 5.0 0.00 0.00 0.00 73 1018.9
20180919174033 60 294 1.0 5.0 0.00 0.00 0.00 72 1018.9
20180919173925 60 294 3.0 5.0 0.00 0.00 0.00 73 1018.9
20180919173813 60 295 3.0 5.0 0.00 0.00 0.00 72 1018.9
20180919173724 60 305 2.0 5.0 0.00 0.00 0.00 73 1018.9
20180919173635 60 305 2.0 5.0 0.00 0.00 0.00 73 1018.9
20180919173524 59 296 3.0 5.0 0.00 0.00 0.00 73 1018.8
20180919173418 59 292 3.0 5.0 0.00 0.00 0.00 73 1018.8
20180919173329 59 290 3.0 5.0 0.00 0.00 0.00 73 1018.8
20180919173216 59 311 1.0 5.0 0.00 0.00 0.00 73 1018.8
20180919173124 59 313 2.0 5.0 0.00 0.00 0.00 74 1018.8
20180919173015 59 300 3.0 5.0 0.00 0.00 0.00 74 1018.8
20180919172924 59 299 2.0 5.0 0.00 0.00 0.00 74 1018.9
20180919172815 59 299 2.0 5.0 0.00 0.00 0.00 74 1018.8
20180919172724 59 299 2.0 5.0 0.00 0.00 0.00 74 1018.9
20180919172635 59 299 3.0 5.0 0.00 0.00 0.00 75 1018.9
20180919172524 59 300 3.0 5.0 0.00 0.00 0.00 75 1018.9
20180919172432 59 319 1.0 3.0 0.00 0.00 0.00 75 1018.9
20180919172323 59 319 3.0 5.0 0.00 0.00 0.00 75 1018.9
20180919172232 58 319 2.0 5.0 0.00 0.00 0.00 75 1018.9
20180919172120 58 320 1.0 5.0 0.00 0.00 0.00 76 1019.0
20180919172029 58 319 2.0 5.0 0.00 0.00 0.00 76 1019.0
20180919171916 58 320 2.0 5.0 0.00 0.00 0.00 76 1019.1
20180919171828 58 319 2.0 5.0 0.00 0.00 0.00 76 1019.1
20180919171717 58 294 2.0 5.0 0.00 0.00 0.00 75 1019.0
20180919171625 58 294 1.0 5.0 0.00 0.00 0.00 75 1019.0
20180919171533 58 294 3.0 5.0 0.00 0.00 0.00 76 1019.0
20180919171421 58 300 2.0 5.0 0.00 0.00 0.00 76 1019.1
20180919171330 58 310 3.0 5.0 0.00 0.00 0.00 76 1019.1
20180919171223 58 310 3.0 5.0 0.00 0.00 0.00 76 1019.0
20180919171134 57 310 2.0 3.0 0.00 0.00 0.00 77 1019.0
20180919171022 57 310 0.0 3.0 0.00 0.00 0.00 77 1019.0
20180919170930 57 302 0.0 3.0 0.00 0.00 0.00 77 1019.0
20180919170818 57 302 2.0 3.0 0.00 0.00 0.00 77 1018.9
20180919170731 57 319 2.0 3.0 0.00 0.00 0.00 77 1018.9
20180919170619 57 327 2.0 3.0 0.00 0.00 0.00 77 1018.9
20180919170530 57 327 2.0 3.0 0.00 0.00 0.00 77 1018.9
20180919170418 57 310 1.0 3.0 0.00 0.00 0.00 78 1018.9
20180919170329 57 306 2.0 3.0 0.00 0.00 0.00 79 1018.9
20180919170225 57 306 2.0 3.0 0.00 0.00 0.00 78 1018.9
20180919170126 57 306 0.0 3.0 0.00 0.00 0.00 78 1018.9
20180919170024 57 306 0.0 3.0 0.00 0.00 0.00 78 1019.0
20180919165935 57 306 0.0 3.0 0.00 0.00 0.00 79 1019.0
20180919165823 57 306 1.0 4.0 0.00 0.00 0.00 80 1019.0
20180919165735 56 306 2.0 4.0 0.00 0.00 0.00 80 1019.0
20180919165623 56 306 2.0 4.0 0.00 0.00 0.00 80 1019.0
20180919165531 56 306 1.0 4.0 0.00 0.00 0.00 80 1019.0
20180919165419 56 306 0.0 4.0 0.00 0.00 0.00 80 1019.1
20180919165329 56 306 0.0 4.0 0.00 0.00 0.00 80 1019.1
20180919165221 56 305 1.0 4.0 0.00 0.00 0.00 81 1019.1
20180919165129 56 306 1.0 4.0 0.00 0.00 0.00 81 1019.1
20180919165018 56 305 2.0 4.0 0.00 0.00 0.00 81 1019.1
20180919164925 56 305 2.0 4.0 0.00 0.00 0.00 81 1019.0
20180919164833 56 301 1.0 3.0 0.00 0.00 0.00 81 1019.0
20180919164722 56 301 0.0 3.0 0.00 0.00 0.00 82 1019.0
20180919164634 55 301 1.0 3.0 0.00 0.00 0.00 82 1019.0
20180919164523 55 301 1.0 3.0 0.00 0.00 0.00 83 1019.0
20180919164430 55 302 0.0 3.0 0.00 0.00 0.00 83 1019.0
20180919164319 55 302 0.0 3.0 0.00 0.00 0.00 82 1018.9
20180919164230 55 302 2.0 3.0 0.00 0.00 0.00 82 1018.9
20180919164122 55 302 1.0 3.0 0.00 0.00 0.00 83 1018.9
20180919164014 55 302 1.0 3.0 0.00 0.00 0.00 83 1018.9
20180919163924 55 302 1.0 3.0 0.00 0.00 0.00 83 1019.0
20180919163832 55 302 1.0 3.0 0.00 0.00 0.00 83 1019.0
20180919163721 55 302 2.0 3.0 0.00 0.00 0.00 83 1019.0
20180919163633 55 302 2.0 3.0 0.00 0.00 0.00 84 1019.0
20180919163521 55 300 2.0 3.0 0.00 0.00 0.00 84 1019.0
20180919163429 55 300 1.0 3.0 0.00 0.00 0.00 84 1019.0
20180919163317 55 309 2.0 3.0 0.00 0.00 0.00 84 1019.0
20180919163225 54 309 2.0 3.0 0.00 0.00 0.00 85 1019.0
20180919163117 54 309 1.0 3.0 0.00 0.00 0.00 85 1018.9
20180919163029 54 309 1.0 3.0 0.00 0.00 0.00 85 1018.9
20180919162916 54 313 1.0 4.0 0.00 0.00 0.00 85 1018.9
20180919162825 54 308 1.0 4.0 0.00 0.00 0.00 85 1018.9
20180919162733 54 308 2.0 4.0 0.00 0.00 0.00 86 1018.9
20180919162621 54 308 2.0 4.0 0.00 0.00 0.00 86 1018.8
20180919162514 54 308 1.0 4.0 0.00 0.00 0.00 86 1018.9
20180919162425 54 308 1.0 4.0 0.00 0.00 0.00 86 1018.9
20180919162333 54 308 0.0 4.0 0.00 0.00 0.00 86 1018.9
20180919162221 54 308 1.0 4.0 0.00 0.00 0.00 86 1018.8
20180919162129 54 308 2.0 4.0 0.00 0.00 0.00 86 1018.8
20180919162022 54 308 1.0 3.0 0.00 0.00 0.00 86 1018.9
20180919161930 54 308 2.0 3.0 0.00 0.00 0.00 87 1018.9
20180919161821 54 308 3.0 3.0 0.00 0.00 0.00 87 1019.0
20180919161729 53 308 2.0 3.0 0.00 0.00 0.00 87 1019.0
20180919161617 53 308 2.0 3.0 0.00 0.00 0.00 87 1018.8
20180919161529 53 308 2.0 3.0 0.00 0.00 0.00 87 1018.8
20180919161418 53 298 1.0 3.0 0.00 0.00 0.00 88 1018.9
20180919161325 53 298 2.0 3.0 0.00 0.00 0.00 88 1018.9
20180919161234 53 329 1.0 3.0 0.00 0.00 0.00 88 1018.9
20180919161122 53 329 1.0 3.0 0.00 0.00 0.00 88 1018.9
20180919161014 53 329 2.0 3.0 0.00 0.00 0.00 88 1018.9
20180919160925 53 329 1.0 3.0 0.00 0.00 0.00 88 1018.9
20180919160813 53 310 1.0 3.0 0.00 0.00 0.00 88 1018.9
20180919160725 53 310 1.0 3.0 0.00 0.00 0.00 88 1018.9
20180919160616 53 310 2.0 4.0 0.00 0.00 0.00 88 1018.9
20180919160528 53 310 2.0 4.0 0.00 0.00 0.00 89 1018.9
20180919160422 53 310 2.0 4.0 0.00 0.00 0.00 89 1018.9
20180919160332 53 309 2.0 4.0 0.00 0.00 0.00 89 1018.9
20180919160220 52 301 1.0 4.0 0.00 0.00 0.00 89 1019.0
20180919160139 52 303 1.0 4.0 0.00 0.00 0.00 89 1019.0
20180919160016 52 303 2.0 4.0 0.00 0.00 0.00 89 1019.0
20180919155928 52 303 3.0 4.0 0.00 0.00 0.00 88 1019.0
20180919155819 52 304 2.0 4.0 0.00 0.00 0.00 88 1019.0
20180919155728 52 304 3.0 4.0 0.00 0.00 0.00 88 1019.0
20180919155619 52 304 2.0 4.0 0.00 0.00 0.00 88 1019.0
20180919155530 52 304 2.0 4.0 0.00 0.00 0.00 88 1019.0
20180919155422 52 300 3.0 4.0 0.00 0.00 0.00 89 1018.9
20180919155331 52 299 3.0 4.0 0.00 0.00 0.00 89 1018.9
20180919155219 52 305 3.0 4.0 0.00 0.00 0.00 89 1018.9
20180919155128 52 306 2.0 4.0 0.00 0.00 0.00 89 1018.9
20180919155016 52 304 2.0 4.0 0.00 0.00 0.00 89 1018.9
20180919154928 52 304 3.0 4.0 0.00 0.00 0.00 89 1018.9
20180919154815 52 306 3.0 4.0 0.00 0.00 0.00 89 1018.9
20180919154724 52 306 2.0 3.0 0.00 0.00 0.00 89 1018.9
20180919154615 52 306 2.0 3.0 0.00 0.00 0.00 90 1018.9
20180919154524 52 306 2.0 3.0 0.00 0.00 0.00 90 1018.8
20180919154415 52 306 2.0 3.0 0.00 0.00 0.00 90 1018.9
20180919154324 52 306 1.0 2.0 0.00 0.00 0.00 90 1018.8
20180919154235 52 306 0.0 2.0 0.00 0.00 0.00 90 1018.8
20180919154123 52 306 0.0 3.0 0.00 0.00 0.00 90 1018.9
20180919154031 52 306 0.0 3.0 0.00 0.00 0.00 90 1018.9
20180919153919 52 306 0.0 3.0 0.00 0.00 0.00 90 1018.9
20180919153832 52 306 0.0 3.0 0.00 0.00 0.00 90 1018.9
20180919153720 52 306 1.0 3.0 0.00 0.00 0.00 90 1018.8
20180919153628 52 306 1.0 3.0 0.00 0.00 0.00 90 1018.8
20180919153516 52 306 1.0 3.0 0.00 0.00 0.00 91 1019.0
20180919153425 52 306 2.0 3.0 0.00 0.00 0.00 91 1018.9
20180919153317 52 306 2.0 3.0 0.00 0.00 0.00 91 1018.9
20180919153229 52 306 1.0 3.0 0.00 0.00 0.00 91 1018.9
20180919153117 52 306 1.0 2.0 0.00 0.00 0.00 92 1018.8
20180919153028 51 306 2.0 2.0 0.00 0.00 0.00 92 1018.8
20180919152919 51 306 0.0 2.0 0.00 0.00 0.00 92 1018.8
20180919152835 51 226 0.0 0.0 0.00 0.00 0.00 92 1018.8
20180919152723 51 226 0.0 0.0 0.00 0.00 0.00 92 1018.7
20180919152631 51 202 0.0 0.0 0.00 0.00 0.00 92 1018.7
20180919152519 51 202 0.0 0.0 0.00 0.00 0.00 92 1018.7
20180919152429 51 202 0.0 0.0 0.00 0.00 0.00 93 1018.7
20180919152320 51 202 0.0 0.0 0.00 0.00 0.00 93 1018.7
20180919152232 51 202 0.0 0.0 0.00 0.00 0.00 93 1018.7
20180919152120 50 202 0.0 0.0 0.00 0.00 0.00 93 1018.7
20180919152028 50 202 0.0 0.0 0.00 0.00 0.00 93 1018.7
20180919151915 50 202 0.0 0.0 0.00 0.00 0.00 93 1018.7
20180919151824 50 202 0.0 0.0 0.00 0.00 0.00 93 1018.8
20180919151720 50 137 0.0 0.0 0.00 0.00 0.00 93 1018.8
20180919151627 50 137 0.0 0.0 0.00 0.00 0.00 93 1018.8
20180919151519 50 137 0.0 0.0 0.00 0.00 0.00 93 1018.8
20180919151431 50 137 0.0 0.0 0.00 0.00 0.00 93 1018.8
20180919151319 50 137 0.0 0.0 0.00 0.00 0.00 93 1018.8
20180919151231 50 137 0.0 0.0 0.00 0.00 0.00 93 1018.8
20180919151119 49 137 0.0 0.0 0.00 0.00 0.00 93 1018.8
20180919151028 49 137 0.0 0.0 0.00 0.00 0.00 93 1018.8
20180919150915 49 137 0.0 0.0 0.00 0.00 0.00 93 1018.8
20180919150824 49 137 0.0 0.0 0.00 0.00 0.00 93 1018.7
20180919150719 49 137 0.0 0.0 0.00 0.00 0.00 93 1018.7
20180919150627 49 137 0.0 0.0 0.00 0.00 0.00 93 1018.7
20180919150519 49 137 0.0 0.0 0.00 0.00 0.00 93 1018.7
20180919150427 49 137 0.0 0.0 0.00 0.00 0.00 93 1018.7
20180919150319 49 137 0.0 0.0 0.00 0.00 0.00 93 1018.8
20180919150232 49 137 0.0 0.0 0.00 0.00 0.00 94 1018.8
20180919150130 49 137 0.0 0.0 0.00 0.00 0.00 94 1018.8
20180919150025 49 137 0.0 0.0 0.00 0.00 0.00 94 1018.8
20180919145932 49 137 0.0 1.0 0.00 0.00 0.00 94 1018.8
20180919145820 49 137 0.0 2.0 0.00 0.00 0.00 94 1018.8
20180919145729 49 137 0.0 3.0 0.00 0.00 0.00 94 1018.8
20180919145621 49 137 0.0 3.0 0.00 0.00 0.00 94 1018.7
20180919145533 49 137 0.0 4.0 0.00 0.00 0.00 94 1018.7
20180919145420 49 137 0.0 4.0 0.00 0.00 0.00 94 1018.8
20180919145329 49 137 0.0 4.0 0.00 0.00 0.00 94 1018.8
20180919145217 49 137 0.0 4.0 0.00 0.00 0.00 94 1018.8
20180919145129 49 137 0.0 4.0 0.00 0.00 0.00 94 1018.8
20180919145017 49 137 1.0 4.0 0.00 0.00 0.00 93 1018.8
20180919144925 49 137 2.0 4.0 0.00 0.00 0.00 93 1018.7
20180919144815 49 116 2.0 4.0 0.00 0.00 0.00 93 1018.7
20180919144724 49 117 2.0 4.0 0.00 0.00 0.00 94 1018.7
20180919144615 49 130 3.0 4.0 0.00 0.00 0.00 94 1018.7
20180919144524 49 129 3.0 4.0 0.00 0.00 0.00 94 1018.7
20180919144433 49 129 3.0 4.0 0.00 0.00 0.00 94 1018.7
20180919144321 49 109 2.0 3.0 0.00 0.00 0.00 93 1018.7
20180919144229 49 130 2.0 3.0 0.00 0.00 0.00 93 1018.7
20180919144121 49 129 2.0 3.0 0.00 0.00 0.00 94 1018.7
20180919144030 49 130 2.0 3.0 0.00 0.00 0.00 94 1018.7
20180919143917 49 111 2.0 3.0 0.00 0.00 0.00 93 1018.8
20180919143826 49 120 1.0 3.0 0.00 0.00 0.00 93 1018.8
20180919143734 49 120 1.0 4.0 0.00 0.00 0.00 93 1018.8
20180919143623 49 119 1.0 4.0 0.00 0.00 0.00 93 1018.6
20180919143535 48 116 1.0 5.0 0.00 0.00 0.00 94 1018.6
20180919143423 48 116 1.0 5.0 0.00 0.00 0.00 94 1018.7
20180919143332 48 128 2.0 5.0 0.00 0.00 0.00 94 1018.7
20180919143219 48 127 1.0 5.0 0.00 0.00 0.00 94 1018.6
20180919143127 48 127 1.0 5.0 0.00 0.00 0.00 94 1018.6
20180919143020 48 126 2.0 5.0 0.00 0.00 0.00 94 1018.6
20180919142928 48 115 3.0 5.0 0.00 0.00 0.00 94 1018.6
20180919142815 48 115 3.0 5.0 0.00 0.00 0.00 94 1018.6
20180919142724 48 120 4.0 5.0 0.00 0.00 0.00 94 1018.6
20180919142615 48 98 4.0 5.0 0.00 0.00 0.00 93 1018.5
20180919142528 48 115 5.0 5.0 0.00 0.00 0.00 93 1018.6
20180919142415 48 112 4.0 5.0 0.00 0.00 0.00 93 1018.6
20180919142324 48 113 3.0 5.0 0.00 0.00 0.00 93 1018.6
20180919142235 48 118 2.0 3.0 0.00 0.00 0.00 93 1018.6
20180919142123 48 122 2.0 3.0 0.00 0.00 0.00 93 1018.5
20180919142015 48 140 1.0 2.0 0.00 0.00 0.00 93 1018.5
20180919141923 48 141 0.0 2.0 0.00 0.00 0.00 93 1018.6
20180919141831 48 141 0.0 2.0 0.00 0.00 0.00 93 1018.6
20180919141720 48 141 0.0 2.0 0.00 0.00 0.00 93 1018.5
20180919141628 48 141 0.0 2.0 0.00 0.00 0.00 93 1018.5
20180919141516 48 141 0.0 2.0 0.00 0.00 0.00 93 1018.5
20180919141429 48 141 1.0 2.0 0.00 0.00 0.00 93 1018.5
20180919141320 48 141 1.0 2.0 0.00 0.00 0.00 93 1018.5
20180919141232 48 141 0.0 1.0 0.00 0.00 0.00 93 1018.5
20180919141120 48 141 0.0 0.0 0.00 0.00 0.00 93 1018.5
20180919141028 48 141 0.0 0.0 0.00 0.00 0.00 93 1018.5
20180919140920 48 141 0.0 0.0 0.00 0.00 0.00 93 1018.6
20180919140828 48 141 0.0 0.0 0.00 0.00 0.00 93 1018.6
20180919140717 48 141 0.0 0.0 0.00 0.00 0.00 93 1018.6
20180919140628 48 141 0.0 0.0 0.00 0.00 0.00 93 1018.6
20180919140519 48 141 0.0 0.0 0.00 0.00 0.00 93 1018.6
20180919140431 48 141 0.0 0.0 0.00 0.00 0.00 93 1018.6
20180919140319 48 141 0.0 0.0 0.00 0.00 0.00 93 1018.6
20180919140228 48 141 0.0 0.0 0.00 0.00 0.00 93 1018.5
20180919140147 48 141 0.0 0.0 0.00 0.00 0.00 93 1018.5
20180919140021 48 141 0.0 0.0 0.00 0.00 0.00 93 1018.6
20180919135928 48 141 0.0 0.0 0.00 0.00 0.00 93 1018.6
20180919135821 48 141 0.0 0.0 0.00 0.00 0.00 93 1018.5
20180919135729 48 141 0.0 0.0 0.00 0.00 0.00 93 1018.5
20180919135617 48 141 0.0 0.0 0.00 0.00 0.00 93 1018.6
20180919135525 48 141 0.0 0.0 0.00 0.00 0.00 93 1018.6
20180919135433 48 141 0.0 0.0 0.00 0.00 0.00 93 1018.6
20180919135326 48 141 0.0 0.0 0.00 0.00 0.00 93 1018.6
20180919135217 48 141 0.0 0.0 0.00 0.00 0.00 93 1018.5
20180919135125 48 141 0.0 0.0 0.00 0.00 0.00 93 1018.6
20180919135034 48 141 0.0 0.0 0.00 0.00 0.00 93 1018.6
20180919134921 48 141 0.0 0.0 0.00 0.00 0.00 93 1018.5
20180919134813 48 141 0.0 0.0 0.00 0.00 0.00 93 1018.5
20180919134725 48 141 0.0 0.0 0.00 0.00 0.00 93 1018.5
20180919134616 48 141 0.0 0.0 0.00 0.00 0.00 93 1018.4
20180919134525 48 141 0.0 0.0 0.00 0.00 0.00 93 1018.4
20180919134415 48 141 0.0 0.0 0.00 0.00 0.00 93 1018.4
20180919134331 48 141 0.0 0.0 0.00 0.00 0.00 93 1018.4
20180919134220 48 141 0.0 0.0 0.00 0.00 0.00 93 1018.3
20180919134128 48 141 0.0 0.0 0.00 0.00 0.00 93 1018.3
20180919134017 48 141 0.0 0.0 0.00 0.00 0.00 93 1018.3
20180919133924 48 141 0.0 0.0 0.00 0.00 0.00 93 1018.3
20180919133816 48 141 0.0 0.0 0.00 0.00 0.00 93 1018.3
20180919133728 48 141 0.0 0.0 0.00 0.00 0.00 93 1018.3
20180919133616 48 141 0.0 0.0 0.00 0.00 0.00 93 1018.3
20180919133524 48 141 0.0 0.0 0.00 0.00 0.00 93 1018.2
20180919133415 48 141 0.0 0.0 0.00 0.00 0.00 93 1018.2
20180919133323 48 141 0.0 0.0 0.00 0.00 0.00 93 1018.2
20180919133216 49 141 0.0 0.0 0.00 0.00 0.00 93 1018.2
20180919133124 49 141 0.0 0.0 0.00 0.00 0.00 93 1018.3
20180919133035 49 141 0.0 0.0 0.00 0.00 0.00 93 1018.3
20180919132923 49 141 0.0 0.0 0.00 0.00 0.00 93 1018.3
20180919132831 49 141 0.0 0.0 0.00 0.00 0.00 93 1018.3
20180919132723 49 141 0.0 2.0 0.00 0.00 0.00 93 1018.3
20180919132631 49 141 0.0 2.0 0.00 0.00 0.00 93 1018.3
20180919132520 49 141 0.0 2.0 0.00 0.00 0.00 93 1018.3
20180919132428 49 141 0.0 2.0 0.00 0.00 0.00 93 1018.3
20180919132316 49 141 0.0 2.0 0.00 0.00 0.00 93 1018.2
20180919132228 49 141 0.0 3.0 0.00 0.00 0.00 93 1018.2
20180919132116 49 141 0.0 3.0 0.00 0.00 0.00 93 1018.3
20180919132025 49 141 0.0 4.0 0.00 0.00 0.00 93 1018.3
20180919131933 49 141 1.0 4.0 0.00 0.00 0.00 93 1018.3
20180919131821 49 141 1.0 4.0 0.00 0.00 0.00 93 1018.2
20180919131713 49 141 2.0 4.0 0.00 0.00 0.00 93 1018.2
20180919131625 49 141 1.0 4.0 0.00 0.00 0.00 93 1018.1
20180919131533 49 141 1.0 4.0 0.00 0.00 0.00 93 1018.1
20180919131420 49 141 2.0 4.0 0.00 0.00 0.00 93 1018.1
20180919131330 49 140 2.0 4.0 0.00 0.00 0.00 93 1018.1
20180919131218 49 130 2.0 5.0 0.00 0.00 0.00 93 1018.1
20180919131130 49 122 2.0 5.0 0.00 0.00 0.00 93 1018.1
20180919131018 49 124 2.0 5.0 0.00 0.00 0.00 93 1018.0
20180919130929 49 145 2.0 5.0 0.00 0.00 0.00 93 1018.0
20180919130818 49 128 2.0 5.0 0.00 0.00 0.00 93 1018.0
20180919130729 49 128 3.0 5.0 0.00 0.00 0.00 93 1018.0
20180919130621 49 142 3.0 5.0 0.00 0.00 0.00 93 1018.0
20180919130529 49 123 3.0 5.0 0.00 0.00 0.00 93 1018.0
20180919130417 49 128 3.0 5.0 0.00 0.00 0.00 93 1018.0
20180919130325 49 125 2.0 4.0 0.00 0.00 0.00 93 1018.0
20180919130234 49 132 2.0 4.0 0.00 0.00 0.00 93 1018.0
20180919130137 49 129 3.0 4.0 0.00 0.00 0.00 93 1018.0
20180919130031 49 107 2.0 4.0 0.00 0.00 0.00 93 1018.0
20180919125919 49 128 3.0 4.0 0.00 0.00 0.00 93 1018.0
20180919125828 49 130 3.0 4.0 0.00 0.00 0.00 93 1018.0
20180919125715 49 128 2.0 4.0 0.00 0.00 0.00 93 1018.0
20180919125624 49 127 2.0 4.0 0.00 0.00 0.00 93 1018.0
20180919125516 49 131 1.0 4.0 0.00 0.00 0.00 93 1017.9
20180919125424 49 132 1.0 4.0 0.00 0.00 0.00 93 1018.0
20180919125315 49 136 1.0 4.0 0.00 0.00 0.00 93 1017.9
20180919125223 49 136 2.0 4.0 0.00 0.00 0.00 93 1017.9
20180919125131 49 140 2.0 4.0 0.00 0.00 0.00 93 1017.9
20180919125024 49 123 2.0 4.0 0.00 0.00 0.00 93 1017.9
20180919124915 49 126 3.0 4.0 0.00 0.00 0.00 93 1017.9
20180919124826 49 123 3.0 5.0 0.00 0.00 0.00 93 1017.9
20180919124714 49 137 1.0 5.0 0.00 0.00 0.00 93 1017.9
20180919124625 49 129 1.0 5.0 0.00 0.00 0.00 93 1017.9
20180919124521 49 129 2.0 5.0 0.00 0.00 0.00 93 1018.0
20180919124430 49 106 2.0 5.0 0.00 0.00 0.00 93 1018.0
20180919124321 49 117 1.0 5.0 0.00 0.00 0.00 93 1017.9
20180919124230 49 126 2.0 5.0 0.00 0.00 0.00 93 1017.9
20180919124117 49 116 2.0 5.0 0.00 0.00 0.00 93 1018.0
20180919124030 49 108 3.0 5.0 0.00 0.00 0.00 93 1018.0
20180919123917 49 132 3.0 5.0 0.00 0.00 0.00 93 1017.9
20180919123829 49 132 3.0 4.0 0.00 0.00 0.00 93 1017.9
20180919123720 49 129 3.0 4.0 0.00 0.00 0.00 93 1018.0
20180919123628 49 120 3.0 4.0 0.00 0.00 0.00 93 1018.0
20180919123520 49 128 2.0 4.0 0.00 0.00 0.00 93 1018.0
20180919123429 49 109 2.0 4.0 0.00 0.00 0.00 93 1018.0
20180919123316 49 130 2.0 4.0 0.00 0.00 0.00 93 1017.9
20180919123225 49 134 2.0 4.0 0.00 0.00 0.00 93 1017.9
20180919123133 49 126 2.0 4.0 0.00 0.00 0.00 93 1017.9
20180919123022 49 126 3.0 4.0 0.00 0.00 0.00 93 1018.0
20180919122913 49 138 2.0 4.0 0.00 0.00 0.00 92 1017.9
20180919122821 49 138 2.0 4.0 0.00 0.00 0.00 92 1017.9
20180919122730 49 138 3.0 4.0 0.00 0.00 0.00 92 1017.9
20180919122618 49 136 2.0 4.0 0.00 0.00 0.00 92 1017.9
20180919122526 49 137 3.0 4.0 0.00 0.00 0.00 92 1017.9
20180919122418 49 129 3.0 4.0 0.00 0.00 0.00 92 1017.9
20180919122327 49 130 3.0 4.0 0.00 0.00 0.00 92 1017.9
20180919122218 49 125 2.0 4.0 0.00 0.00 0.00 92 1017.9
20180919122126 49 124 2.0 4.0 0.00 0.00 0.00 92 1017.9
20180919122014 49 119 1.0 3.0 0.00 0.00 0.00 92 1017.9
20180919121926 49 119 0.0 0.0 0.00 0.00 0.00 92 1017.9
20180919121814 49 119 0.0 0.0 0.00 0.00 0.00 92 1017.9
20180919121725 49 119 0.0 0.0 0.00 0.00 0.00 92 1017.9
20180919121616 49 119 0.0 0.0 0.00 0.00 0.00 92 1018.0
20180919121525 49 119 0.0 0.0 0.00 0.00 0.00 92 1018.0
20180919121417 49 119 0.0 0.0 0.00 0.00 0.00 92 1018.0
20180919121324 49 119 0.0 0.0 0.00 0.00 0.00 92 1018.0
20180919121212 49 119 0.0 0.0 0.00 0.00 0.00 92 1018.0
20180919121123 49 119 0.0 0.0 0.00 0.00 0.00 92 1018.0
20180919121015 49 119 0.0 0.0 0.00 0.00 0.00 92 1018.1
20180919120922 49 119 0.0 0.0 0.00 0.00 0.00 92 1018.0
20180919120814 49 119 0.0 0.0 0.00 0.00 0.00 92 1018.0
20180919120726 49 119 0.0 0.0 0.00 0.00 0.00 92 1018.1
20180919120614 49 119 0.0 0.0 0.00 0.00 0.00 92 1018.0
20180919120526 49 119 0.0 0.0 0.00 0.00 0.00 92 1018.0
20180919120417 49 119 0.0 0.0 0.00 0.00 0.00 92 1018.1
20180919120330 49 119 0.0 0.0 0.00 0.00 0.00 92 1018.1
20180919120221 49 119 0.0 0.0 0.00 0.00 0.00 92 1018.0
20180919120140 49 119 0.0 0.0 0.00 0.00 0.00 92 1018.0
20180919120017 49 119 0.0 0.0 0.00 0.00 0.00 92 1018.0
20180919115925 49 119 0.0 0.0 0.00 0.00 0.00 92 1018.0
20180919115817 49 119 0.0 0.0 0.00 0.00 0.00 92 1018.0
20180919115729 49 119 0.0 0.0 0.00 0.00 0.00 92 1018.0
20180919115617 49 119 0.0 0.0 0.00 0.00 0.00 92 1018.0
20180919115525 49 119 0.0 0.0 0.00 0.00 0.00 92 1018.0
20180919115414 49 119 0.0 0.0 0.00 0.00 0.00 91 1018.0
20180919115326 49 119 0.0 0.0 0.00 0.00 0.00 91 1018.0
20180919115214 49 119 0.0 0.0 0.00 0.00 0.00 91 1018.0
20180919115125 49 119 0.0 0.0 0.00 0.00 0.00 91 1018.0
20180919115016 49 119 0.0 0.0 0.00 0.00 0.00 91 1018.0
20180919114924 49 119 0.0 0.0 0.00 0.00 0.00 91 1017.9
20180919114819 49 119 0.0 0.0 0.00 0.00 0.00 91 1017.9
20180919114728 49 119 0.0 0.0 0.00 0.00 0.00 91 1017.9
20180919114616 49 119 0.0 0.0 0.00 0.00 0.00 91 1018.0
20180919114524 49 119 0.0 0.0 0.00 0.00 0.00 91 1018.0
20180919114415 49 119 0.0 0.0 0.00 0.00 0.00 91 1018.0
20180919114323 49 119 0.0 0.0 0.00 0.00 0.00 91 1017.9
20180919114215 49 119 0.0 0.0 0.00 0.00 0.00 91 1017.9
20180919114124 49 119 0.0 0.0 0.00 0.00 0.00 91 1018.0
20180919114032 49 119 0.0 0.0 0.00 0.00 0.00 91 1018.0
20180919113920 49 119 0.0 0.0 0.00 0.00 0.00 91 1018.0
20180919113831 49 119 0.0 0.0 0.00 0.00 0.00 91 1018.0
20180919113724 49 119 0.0 0.0 0.00 0.00 0.00 91 1018.0
20180919113614 49 119 0.0 0.0 0.00 0.00 0.00 91 1018.0
20180919113523 49 119 0.0 0.0 0.00 0.00 0.00 91 1018.0
20180919113432 49 119 0.0 0.0 0.00 0.00 0.00 91 1018.0
20180919113320 49 119 0.0 0.0 0.00 0.00 0.00 91 1017.9
20180919113212 49 119 0.0 0.0 0.00 0.00 0.00 91 1018.0
20180919113124 49 119 0.0 0.0 0.00 0.00 0.00 91 1018.0
20180919113032 49 119 0.0 0.0 0.00 0.00 0.00 91 1018.0
20180919112919 49 119 0.0 0.0 0.00 0.00 0.00 91 1018.0
20180919112828 49 119 0.0 0.0 0.00 0.00 0.00 91 1018.0
20180919112720 49 119 0.0 0.0 0.00 0.00 0.00 91 1018.0
20180919112628 49 119 0.0 0.0 0.00 0.00 0.00 91 1018.0
20180919112520 49 119 0.0 0.0 0.00 0.00 0.00 91 1018.0
20180919112428 49 119 0.0 0.0 0.00 0.00 0.00 91 1018.0
20180919112316 49 119 0.0 0.0 0.00 0.00 0.00 91 1017.9
20180919112224 49 119 0.0 0.0 0.00 0.00 0.00 91 1017.9
20180919112116 49 119 0.0 0.0 0.00 0.00 0.00 91 1017.9
20180919112025 49 119 0.0 0.0 0.00 0.00 0.00 91 1017.9
20180919111915 49 119 0.0 0.0 0.00 0.00 0.00 91 1017.9
20180919111824 49 119 0.0 0.0 0.00 0.00 0.00 91 1017.9
20180919111732 49 119 0.0 0.0 0.00 0.00 0.00 91 1017.9
20180919111624 49 119 0.0 0.0 0.00 0.00 0.00 91 1018.0
20180919111512 50 119 0.0 0.0 0.00 0.00 0.00 91 1017.9
20180919111423 50 119 0.0 0.0 0.00 0.00 0.00 91 1017.9
20180919111332 50 119 0.0 0.0 0.00 0.00 0.00 91 1017.9
20180919111220 50 119 0.0 0.0 0.00 0.00 0.00 91 1017.9
20180919111116 50 119 0.0 0.0 0.00 0.00 0.00 91 1018.0
20180919111024 50 119 0.0 0.0 0.00 0.00 0.00 91 1017.8
20180919110915 50 119 0.0 0.0 0.00 0.00 0.00 91 1017.9
20180919110823 50 119 0.0 0.0 0.00 0.00 0.00 91 1018.0
20180919110731 50 119 0.0 0.0 0.00 0.00 0.00 91 1018.0
20180919110624 50 119 0.0 0.0 0.00 0.00 0.00 91 1018.0
20180919110515 50 119 0.0 0.0 0.00 0.00 0.00 91 1017.9
20180919110423 50 119 0.0 0.0 0.00 0.00 0.00 91 1017.9
20180919110333 50 119 0.0 0.0 0.00 0.00 0.00 91 1017.9
20180919110220 50 119 0.0 0.0 0.00 0.00 0.00 91 1017.9
20180919110139 50 119 0.0 0.0 0.00 0.00 0.00 91 1017.9
20180919110018 50 119 0.0 0.0 0.00 0.00 0.00 91 1017.9
20180919105926 50 119 0.0 0.0 0.00 0.00 0.00 91 1017.9
20180919105814 50 119 0.0 0.0 0.00 0.00 0.00 91 1017.8
20180919105722 50 119 0.0 0.0 0.00 0.00 0.00 91 1017.9
20180919105631 50 119 0.0 0.0 0.00 0.00 0.00 91 1017.9
20180919105523 50 119 0.0 0.0 0.00 0.00 0.00 91 1017.9
20180919105432 50 119 0.0 0.0 0.00 0.00 0.00 91 1017.9
20180919105320 50 119 0.0 0.0 0.00 0.00 0.00 91 1017.9
20180919105228 50 119 0.0 0.0 0.00 0.00 0.00 91 1017.9
20180919105116 50 119 0.0 0.0 0.00 0.00 0.00 91 1017.9
20180919105029 50 119 0.0 0.0 0.00 0.00 0.00 91 1017.9
20180919104919 50 119 0.0 0.0 0.00 0.00 0.00 91 1017.9
20180919104828 50 119 0.0 0.0 0.00 0.00 0.00 91 1017.9
20180919104719 50 119 0.0 0.0 0.00 0.00 0.00 91 1017.9
20180919104630 50 119 0.0 0.0 0.00 0.00 0.00 91 1017.9
20180919104525 50 119 0.0 0.0 0.00 0.00 0.00 91 1017.9
20180919104414 50 119 0.0 0.0 0.00 0.00 0.00 91 1017.9
20180919104322 50 119 0.0 0.0 0.00 0.00 0.00 91 1017.9
20180919104231 50 119 0.0 0.0 0.00 0.00 0.00 91 1017.9
20180919104119 50 119 0.0 0.0 0.00 0.00 0.00 91 1017.9
20180919104011 50 119 0.0 0.0 0.00 0.00 0.00 91 1017.9
20180919103922 50 119 0.0 0.0 0.00 0.00 0.00 91 1017.9
20180919103813 50 119 0.0 0.0 0.00 0.00 0.00 90 1017.9
20180919103722 50 119 0.0 0.0 0.00 0.00 0.00 90 1017.9
20180919103612 50 119 0.0 1.0 0.00 0.00 0.00 90 1017.8
20180919103524 50 119 0.0 1.0 0.00 0.00 0.00 90 1017.8
20180919103419 50 119 0.0 1.0 0.00 0.00 0.00 90 1017.8
20180919103329 50 119 0.0 1.0 0.00 0.00 0.00 90 1017.8
20180919103219 50 119 0.0 1.0 0.00 0.00 0.00 90 1017.8
20180919103131 50 119 0.0 2.0 0.00 0.00 0.00 90 1017.8
20180919103019 50 119 0.0 2.0 0.00 0.00 0.00 90 1017.8
20180919102931 50 119 0.0 2.0 0.00 0.00 0.00 90 1017.8
20180919102819 50 119 0.0 2.0 0.00 0.00 0.00 90 1017.8
20180919102728 50 119 0.0 2.0 0.00 0.00 0.00 90 1017.8
20180919102616 50 119 0.0 2.0 0.00 0.00 0.00 90 1017.7
20180919102524 50 119 0.0 2.0 0.00 0.00 0.00 90 1017.8
20180919102419 50 119 0.0 2.0 0.00 0.00 0.00 90 1017.8
20180919102328 50 119 1.0 2.0 0.00 0.00 0.00 90 1017.8
20180919102219 50 119 0.0 0.0 0.00 0.00 0.00 90 1017.8
20180919102128 50 119 0.0 1.0 0.00 0.00 0.00 90 1017.8
20180919102016 50 119 0.0 1.0 0.00 0.00 0.00 90 1017.8
20180919101928 50 119 0.0 1.0 0.00 0.00 0.00 90 1017.8
20180919101816 50 119 0.0 1.0 0.00 0.00 0.00 90 1017.8
20180919101724 50 119 0.0 1.0 0.00 0.00 0.00 90 1017.8
20180919101632 50 119 0.0 1.0 0.00 0.00 0.00 90 1017.8
20180919101521 51 119 0.0 1.0 0.00 0.00 0.00 90 1017.8
20180919101413 51 119 0.0 1.0 0.00 0.00 0.00 90 1017.8
20180919101321 51 119 0.0 2.0 0.00 0.00 0.00 89 1017.8
20180919101230 51 119 0.0 2.0 0.00 0.00 0.00 89 1017.8
20180919101121 51 119 0.0 2.0 0.00 0.00 0.00 89 1017.8
20180919101030 51 119 0.0 2.0 0.00 0.00 0.00 89 1017.8
20180919100917 51 119 0.0 2.0 0.00 0.00 0.00 89 1017.7
20180919100829 51 119 0.0 2.0 0.00 0.00 0.00 89 1017.7
20180919100718 51 119 0.0 2.0 0.00 0.00 0.00 89 1017.7
20180919100626 51 119 0.0 2.0 0.00 0.00 0.00 89 1017.7
20180919100514 51 119 1.0 2.0 0.00 0.00 0.00 89 1017.8
20180919100423 51 119 1.0 2.0 0.00 0.00 0.00 89 1017.8
20180919100315 51 119 0.0 0.0 0.00 0.00 0.00 89 1017.7
20180919100224 51 119 0.0 0.0 0.00 0.00 0.00 89 1017.8
20180919100146 51 119 0.0 0.0 0.00 0.00 0.00 89 1017.8
20180919100020 51 119 0.0 0.0 0.00 0.00 0.00 89 1017.7
20180919095931 51 119 0.0 0.0 0.00 0.00 0.00 89 1017.7
20180919095823 51 119 0.0 0.0 0.00 0.00 0.00 89 1017.7
20180919095715 51 119 0.0 0.0 0.00 0.00 0.00 89 1017.7
20180919095623 51 119 0.0 0.0 0.00 0.00 0.00 88 1017.7
20180919095531 51 119 0.0 0.0 0.00 0.00 0.00 88 1017.7
20180919095420 51 119 0.0 0.0 0.00 0.00 0.00 88 1017.8
20180919095312 51 119 0.0 0.0 0.00 0.00 0.00 88 1017.7
20180919095223 51 119 0.0 0.0 0.00 0.00 0.00 88 1017.7
20180919095112 51 119 0.0 0.0 0.00 0.00 0.00 88 1017.7
20180919095023 51 119 0.0 0.0 0.00 0.00 0.00 88 1017.7
20180919094931 51 119 0.0 0.0 0.00 0.00 0.00 88 1017.7
20180919094819 51 119 0.0 0.0 0.00 0.00 0.00 88 1017.7
20180919094731 51 119 0.0 0.0 0.00 0.00 0.00 88 1017.7
20180919094619 51 119 0.0 0.0 0.00 0.00 0.00 88 1017.7
20180919094528 51 119 0.0 0.0 0.00 0.00 0.00 88 1017.7
20180919094416 51 119 0.0 0.0 0.00 0.00 0.00 88 1017.7
20180919094323 51 119 0.0 0.0 0.00 0.00 0.00 88 1017.7
20180919094216 51 119 0.0 0.0 0.00 0.00 0.00 88 1017.7
20180919094125 51 119 0.0 0.0 0.00 0.00 0.00 88 1017.6
20180919094016 51 119 0.0 0.0 0.00 0.00 0.00 88 1017.7
20180919093923 51 119 0.0 0.0 0.00 0.00 0.00 88 1017.6
20180919093832 51 119 0.0 0.0 0.00 0.00 0.00 88 1017.6
20180919093724 51 119 0.0 0.0 0.00 0.00 0.00 88 1017.6
20180919093612 51 119 0.0 0.0 0.00 0.00 0.00 88 1017.7
20180919093523 51 119 0.0 0.0 0.00 0.00 0.00 88 1017.6
20180919093432 51 119 0.0 0.0 0.00 0.00 0.00 88 1017.6
20180919093319 51 119 0.0 0.0 0.00 0.00 0.00 88 1017.6
20180919093228 51 119 0.0 0.0 0.00 0.00 0.00 88 1017.6
20180919093120 51 119 0.0 0.0 0.00 0.00 0.00 88 1017.6
20180919093032 51 119 0.0 0.0 0.00 0.00 0.00 88 1017.6
20180919092919 51 119 0.0 0.0 0.00 0.00 0.00 88 1017.6
20180919092827 51 119 0.0 0.0 0.00 0.00 0.00 88 1017.6
20180919092716 51 119 0.0 0.0 0.00 0.00 0.00 88 1017.5
20180919092628 51 119 0.0 0.0 0.00 0.00 0.00 88 1017.5
20180919092516 51 119 0.0 0.0 0.00 0.00 0.00 88 1017.6
20180919092424 51 119 0.0 0.0 0.00 0.00 0.00 88 1017.6
20180919092332 51 119 0.0 0.0 0.00 0.00 0.00 88 1017.6
20180919092220 51 119 0.0 0.0 0.00 0.00 0.00 87 1017.6
20180919092112 51 119 0.0 0.0 0.00 0.00 0.00 88 1017.6
20180919092024 51 119 0.0 0.0 0.00 0.00 0.00 88 1017.6
20180919091932 51 119 0.0 0.0 0.00 0.00 0.00 88 1017.6
20180919091820 52 119 0.0 0.0 0.00 0.00 0.00 88 1017.6
20180919091729 52 119 0.0 0.0 0.00 0.00 0.00 88 1017.6
20180919091621 52 119 0.0 0.0 0.00 0.00 0.00 88 1017.6
20180919091532 52 119 0.0 0.0 0.00 0.00 0.00 88 1017.6
20180919091419 52 119 0.0 0.0 0.00 0.00 0.00 87 1017.5
20180919091328 52 119 0.0 0.0 0.00 0.00 0.00 87 1017.5
20180919091216 52 119 0.0 0.0 0.00 0.00 0.00 87 1017.6
20180919091124 52 119 0.0 0.0 0.00 0.00 0.00 87 1017.6
20180919091017 52 119 0.0 0.0 0.00 0.00 0.00 87 1017.6
20180919090928 52 119 0.0 0.0 0.00 0.00 0.00 87 1017.6
20180919090816 52 119 0.0 0.0 0.00 0.00 0.00 87 1017.6
20180919090724 52 119 0.0 0.0 0.00 0.00 0.00 87 1017.6
20180919090632 52 119 0.0 0.0 0.00 0.00 0.00 87 1017.6
20180919090525 52 119 0.0 0.0 0.00 0.00 0.00 87 1017.6
20180919090412 52 119 0.0 0.0 0.00 0.00 0.00 87 1017.6
20180919090324 52 119 0.0 0.0 0.00 0.00 0.00 87 1017.6
20180919090232 52 119 0.0 0.0 0.00 0.00 0.00 87 1017.6
20180919090131 52 119 0.0 0.0 0.00 0.00 0.00 87 1017.6
20180919090029 52 119 0.0 0.0 0.00 0.00 0.00 87 1017.6
20180919085917 52 119 0.0 0.0 0.00 0.00 0.00 87 1017.6
20180919085825 52 119 0.0 0.0 0.00 0.00 0.00 87 1017.6
20180919085714 52 119 0.0 2.0 0.00 0.00 0.00 87 1017.6
20180919085622 52 119 0.0 2.0 0.00 0.00 0.00 87 1017.6
20180919085514 52 119 0.0 2.0 0.00 0.00 0.00 87 1017.6
20180919085423 52 119 0.0 2.0 0.00 0.00 0.00 87 1017.6
20180919085314 52 119 0.0 2.0 0.00 0.00 0.00 87 1017.6
20180919085223 52 119 0.0 2.0 0.00 0.00 0.00 87 1017.6
20180919085114 52 119 0.0 2.0 0.00 0.00 0.00 87 1017.6
20180919085022 52 119 0.0 2.0 0.00 0.00 0.00 87 1017.6
20180919084914 52 119 1.0 2.0 0.00 0.00 0.00 87 1017.7
20180919084822 52 119 1.0 2.0 0.00 0.00 0.00 86 1017.7
20180919084731 52 119 1.0 2.0 0.00 0.00 0.00 86 1017.7
20180919084622 52 119 1.0 2.0 0.00 0.00 0.00 86 1017.6
20180919084530 52 119 1.0 2.0 0.00 0.00 0.00 86 1017.6
20180919084423 52 119 0.0 2.0 0.00 0.00 0.00 86 1017.6
20180919084314 52 119 0.0 0.0 0.00 0.00 0.00 86 1017.6
20180919084223 52 119 0.0 0.0 0.00 0.00 0.00 86 1017.7
20180919084131 52 119 0.0 0.0 0.00 0.00 0.00 86 1017.7
20180919084019 52 119 0.0 0.0 0.00 0.00 0.00 86 1017.6
20180919083931 52 119 0.0 0.0 0.00 0.00 0.00 86 1017.6
20180919083819 52 119 0.0 0.0 0.00 0.00 0.00 86 1017.6
20180919083728 52 119 0.0 0.0 0.00 0.00 0.00 86 1017.6
20180919083615 53 119 0.0 0.0 0.00 0.00 0.00 86 1017.6
20180919083524 53 119 0.0 0.0 0.00 0.00 0.00 86 1017.6
20180919083419 53 119 0.0 0.0 0.00 0.00 0.00 86 1017.6
20180919083327 53 119 0.0 0.0 0.00 0.00 0.00 86 1017.6
20180919083215 53 119 0.0 0.0 0.00 0.00 0.00 86 1017.6
20180919083123 53 119 0.0 0.0 0.00 0.00 0.00 86 1017.6
20180919083015 53 119 0.0 0.0 0.00 0.00 0.00 86 1017.6
20180919082923 53 119 0.0 0.0 0.00 0.00 0.00 86 1017.6
20180919082815 53 119 0.0 0.0 0.00 0.00 0.00 86 1017.6
20180919082723 53 119 0.0 0.0 0.00 0.00 0.00 86 1017.6
20180919082614 53 119 0.0 0.0 0.00 0.00 0.00 86 1017.6
20180919082522 53 119 0.0 1.0 0.00 0.00 0.00 86 1017.6
20180919082432 53 119 0.0 2.0 0.00 0.00 0.00 86 1017.6
20180919082324 53 119 0.0 2.0 0.00 0.00 0.00 86 1017.6
20180919082215 53 119 0.0 2.0 0.00 0.00 0.00 86 1017.6
20180919082123 53 119 0.0 2.0 0.00 0.00 0.00 86 1017.6
20180919082014 53 119 0.0 2.0 0.00 0.00 0.00 86 1017.6
20180919081923 53 119 0.0 2.0 0.00 0.00 0.00 86 1017.7
20180919081817 53 119 0.0 2.0 0.00 0.00 0.00 86 1017.6
20180919081726 53 119 0.0 2.0 0.00 0.00 0.00 86 1017.6
20180919081614 53 119 1.0 2.0 0.00 0.00 0.00 86 1017.6
20180919081522 53 119 1.0 2.0 0.00 0.00 0.00 86 1017.6
20180919081431 53 119 1.0 2.0 0.00 0.00 0.00 86 1017.6
20180919081323 53 119 1.0 2.0 0.00 0.00 0.00 86 1017.7
20180919081211 53 119 1.0 2.0 0.00 0.00 0.00 86 1017.7
20180919081123 53 119 0.0 1.0 0.00 0.00 0.00 85 1017.7
20180919081031 53 119 0.0 1.0 0.00 0.00 0.00 85 1017.7
20180919080919 53 119 0.0 1.0 0.00 0.00 0.00 85 1017.7
20180919080827 53 119 0.0 1.0 0.00 0.00 0.00 85 1017.7
20180919080719 53 119 0.0 0.0 0.00 0.00 0.00 85 1017.7
20180919080631 53 119 0.0 0.0 0.00 0.00 0.00 85 1017.7
20180919080519 53 119 0.0 0.0 0.00 0.00 0.00 85 1017.7
20180919080428 53 119 0.0 0.0 0.00 0.00 0.00 85 1017.6
20180919080315 53 119 0.0 0.0 0.00 0.00 0.00 85 1017.7
20180919080227 53 119 0.0 0.0 0.00 0.00 0.00 85 1017.7
20180919080130 53 119 0.0 0.0 0.00 0.00 0.00 85 1017.7
20180919080024 53 119 0.0 0.0 0.00 0.00 0.00 85 1017.7
20180919075932 53 119 0.0 0.0 0.00 0.00 0.00 85 1017.7
20180919075820 53 119 0.0 1.0 0.00 0.00 0.00 85 1017.6
20180919075712 53 119 0.0 1.0 0.00 0.00 0.00 85 1017.7
20180919075624 53 119 0.0 1.0 0.00 0.00 0.00 85 1017.7
20180919075532 53 119 0.0 1.0 0.00 0.00 0.00 85 1017.7
20180919075419 53 119 0.0 2.0 0.00 0.00 0.00 85 1017.7
20180919075328 53 119 0.0 2.0 0.00 0.00 0.00 85 1017.7
20180919075220 54 119 0.0 2.0 0.00 0.00 0.00 85 1017.7
20180919075131 54 119 0.0 2.0 0.00 0.00 0.00 85 1017.7
20180919075020 54 119 0.0 2.0 0.00 0.00 0.00 85 1017.7
20180919074927 54 119 0.0 2.0 0.00 0.00 0.00 85 1017.7
20180919074816 54 119 0.0 3.0 0.00 0.00 0.00 85 1017.7
20180919074724 54 119 0.0 3.0 0.00 0.00 0.00 85 1017.6
20180919074616 54 119 1.0 3.0 0.00 0.00 0.00 85 1017.6
20180919074525 54 119 2.0 3.0 0.00 0.00 0.00 85 1017.6
20180919074415 54 119 1.0 3.0 0.00 0.00 0.00 85 1017.6
20180919074323 54 119 1.0 3.0 0.00 0.00 0.00 85 1017.7
20180919074215 54 119 2.0 3.0 0.00 0.00 0.00 85 1017.7
20180919074127 54 119 1.0 3.0 0.00 0.00 0.00 85 1017.7
20180919074015 54 119 1.0 3.0 0.00 0.00 0.00 85 1017.6
20180919073923 54 119 1.0 4.0 0.00 0.00 0.00 85 1017.6
20180919073832 54 119 1.0 4.0 0.00 0.00 0.00 85 1017.6
20180919073720 54 119 2.0 4.0 0.00 0.00 0.00 85 1017.6
20180919073632 54 119 2.0 4.0 0.00 0.00 0.00 85 1017.6
20180919073520 54 119 1.0 4.0 0.00 0.00 0.00 85 1017.6
20180919073428 54 119 2.0 4.0 0.00 0.00 0.00 85 1017.6
20180919073316 54 120 2.0 4.0 0.00 0.00 0.00 84 1017.6
20180919073224 54 126 2.0 4.0 0.00 0.00 0.00 84 1017.7
20180919073116 54 127 3.0 4.0 0.00 0.00 0.00 84 1017.6
20180919073028 54 128 2.0 4.0 0.00 0.00 0.00 84 1017.6
20180919072916 54 119 2.0 4.0 0.00 0.00 0.00 84 1017.6
20180919072824 54 119 3.0 4.0 0.00 0.00 0.00 84 1017.6
20180919072733 54 121 2.0 3.0 0.00 0.00 0.00 84 1017.6
20180919072621 54 121 3.0 3.0 0.00 0.00 0.00 84 1017.6
20180919072513 54 121 3.0 3.0 0.00 0.00 0.00 84 1017.6
20180919072424 54 114 2.0 3.0 0.00 0.00 0.00 84 1017.6
20180919072312 54 114 3.0 3.0 0.00 0.00 0.00 84 1017.6
20180919072224 54 114 3.0 3.0 0.00 0.00 0.00 84 1017.6
20180919072131 54 114 3.0 3.0 0.00 0.00 0.00 84 1017.6
20180919072024 54 114 2.0 3.0 0.00 0.00 0.00 84 1017.6
20180919071914 54 114 1.0 2.0 0.00 0.00 0.00 83 1017.6
20180919071823 54 115 0.0 1.0 0.00 0.00 0.00 83 1017.6
20180919071734 54 114 0.0 0.0 0.00 0.00 0.00 83 1017.6
20180919071622 54 114 0.0 0.0 0.00 0.00 0.00 83 1017.6
20180919071514 54 114 0.0 0.0 0.00 0.00 0.00 83 1017.6
20180919071424 54 115 0.0 0.0 0.00 0.00 0.00 83 1017.6
20180919071314 54 114 0.0 0.0 0.00 0.00 0.00 83 1017.6
20180919071223 54 115 0.0 0.0 0.00 0.00 0.00 83 1017.6
20180919071131 54 115 0.0 0.0 0.00 0.00 0.00 83 1017.6
20180919071024 54 115 0.0 0.0 0.00 0.00 0.00 83 1017.6
20180919070914 54 115 0.0 0.0 0.00 0.00 0.00 82 1017.6
20180919070825 54 115 0.0 0.0 0.00 0.00 0.00 82 1017.6
20180919070734 54 114 0.0 0.0 0.00 0.00 0.00 82 1017.6
20180919070622 54 115 0.0 0.0 0.00 0.00 0.00 82 1017.6
20180919070531 54 114 0.0 0.0 0.00 0.00 0.00 82 1017.6
20180919070422 54 115 0.0 0.0 0.00 0.00 0.00 82 1017.7
20180919070331 54 115 0.0 0.0 0.00 0.00 0.00 82 1017.7
20180919070219 54 115 0.0 0.0 0.00 0.00 0.00 82 1017.6
20180919070138 54 114 0.0 0.0 0.00 0.00 0.00 82 1017.6
20180919070015 54 114 0.0 0.0 0.00 0.00 0.00 82 1017.6
20180919065927 54 114 0.0 0.0 0.00 0.00 0.00 81 1017.6
20180919065818 54 114 0.0 0.0 0.00 0.00 0.00 81 1017.6
20180919065729 54 114 0.0 0.0 0.00 0.00 0.00 81 1017.6
20180919065617 54 115 0.0 0.0 0.00 0.00 0.00 81 1017.6
20180919065525 54 115 0.0 0.0 0.00 0.00 0.00 81 1017.6
20180919065417 54 115 0.0 0.0 0.00 0.00 0.00 81 1017.6
20180919065326 54 114 0.0 0.0 0.00 0.00 0.00 81 1017.6
20180919065214 54 114 0.0 0.0 0.00 0.00 0.00 81 1017.6
20180919065125 54 114 0.0 0.0 0.00 0.00 0.00 81 1017.6
20180919065017 54 115 0.0 0.0 0.00 0.00 0.00 80 1017.6
20180919064929 54 114 0.0 0.0 0.00 0.00 0.00 80 1017.6
20180919064817 54 115 0.0 0.0 0.00 0.00 0.00 80 1017.6
20180919064725 54 114 0.0 0.0 0.00 0.00 0.00 80 1017.6
20180919064614 54 114 0.0 0.0 0.00 0.00 0.00 80 1017.6
20180919064525 54 115 0.0 0.0 0.00 0.00 0.00 80 1017.6
20180919064420 54 114 0.0 0.0 0.00 0.00 0.00 80 1017.7
20180919064329 54 114 0.0 0.0 0.00 0.00 0.00 80 1017.7
20180919064218 54 114 0.0 0.0 0.00 0.00 0.00 79 1017.7
20180919064128 54 114 0.0 0.0 0.00 0.00 0.00 79 1017.7
20180919064017 55 114 0.0 0.0 0.00 0.00 0.00 79 1017.6
20180919063925 55 115 0.0 0.0 0.00 0.00 0.00 79 1017.6
20180919063816 55 114 0.0 0.0 0.00 0.00 0.00 79 1017.6
20180919063726 55 114 0.0 0.0 0.00 0.00 0.00 79 1017.6
20180919063616 55 114 0.0 0.0 0.00 0.00 0.00 79 1017.6
20180919063525 55 114 0.0 0.0 0.00 0.00 0.00 79 1017.6
20180919063432 55 114 0.0 0.0 0.00 0.00 0.00 79 1017.6
20180919063326 55 114 0.0 0.0 0.00 0.00 0.00 79 1017.6
20180919063234 55 114 0.0 0.0 0.00 0.00 0.00 79 1017.6
20180919063122 55 114 0.0 0.0 0.00 0.00 0.00 79 1017.6
20180919063030 55 114 0.0 0.0 0.00 0.00 0.00 79 1017.5
20180919062918 55 114 0.0 0.0 0.00 0.00 0.00 79 1017.5
20180919062831 55 114 0.0 0.0 0.00 0.00 0.00 79 1017.5
20180919062719 55 114 0.0 0.0 0.00 0.00 0.00 79 1017.6
20180919062627 55 114 0.0 0.0 0.00 0.00 0.00 78 1017.6
20180919062515 55 114 0.0 0.0 0.00 0.00 0.00 78 1017.6
20180919062426 55 114 0.0 0.0 0.00 0.00 0.00 78 1017.6
20180919062322 55 114 0.0 0.0 0.00 0.00 0.00 78 1017.6
20180919062230 55 114 0.0 0.0 0.00 0.00 0.00 78 1017.6
20180919062117 55 114 0.0 0.0 0.00 0.00 0.00 78 1017.6
20180919062029 55 114 0.0 0.0 0.00 0.00 0.00 78 1017.6
20180919061917 55 114 0.0 0.0 0.00 0.00 0.00 78 1017.7
20180919061812 55 114 0.0 0.0 0.00 0.00 0.00 78 1017.6
20180919061723 55 114 0.0 0.0 0.00 0.00 0.00 78 1017.6
20180919061614 55 114 0.0 0.0 0.00 0.00 0.00 78 1017.7
20180919061523 55 114 0.0 0.0 0.00 0.00 0.00 78 1017.7
20180919061414 55 115 0.0 0.0 0.00 0.00 0.00 78 1017.7
20180919061326 55 114 0.0 0.0 0.00 0.00 0.00 78 1017.7
20180919061219 55 114 0.0 0.0 0.00 0.00 0.00 78 1017.7
20180919061130 55 114 0.0 0.0 0.00 0.00 0.00 78 1017.7
20180919061018 55 114 0.0 0.0 0.00 0.00 0.00 78 1017.7
20180919060929 55 114 0.0 0.0 0.00 0.00 0.00 77 1017.7
20180919060817 55 114 0.0 0.0 0.00 0.00 0.00 77 1017.7
20180919060729 55 114 0.0 0.0 0.00 0.00 0.00 77 1017.7
20180919060618 55 114 0.0 0.0 0.00 0.00 0.00 77 1017.7
20180919060526 55 114 0.0 0.0 0.00 0.00 0.00 77 1017.7
20180919060417 55 114 0.0 0.0 0.00 0.00 0.00 77 1017.7
20180919060325 55 114 0.0 0.0 0.00 0.00 0.00 77 1017.7
20180919060217 55 114 0.0 0.0 0.00 0.00 0.00 77 1017.7
20180919060139 55 114 0.0 0.0 0.00 0.00 0.00 77 1017.7
20180919060014 55 114 0.0 0.0 0.00 0.00 0.00 77 1017.7
20180919055924 55 114 0.0 0.0 0.00 0.00 0.00 77 1017.7
20180919055833 55 114 0.0 0.0 0.00 0.00 0.00 77 1017.8
20180919055725 55 114 0.0 0.0 0.00 0.00 0.00 77 1017.8
20180919055633 55 114 0.0 0.0 0.00 0.00 0.00 77 1017.7
20180919055522 56 114 0.0 0.0 0.00 0.00 0.00 76 1017.7
20180919055429 56 114 0.0 0.0 0.00 0.00 0.00 76 1017.7
20180919055317 56 114 0.0 0.0 0.00 0.00 0.00 76 1017.8
20180919055226 56 114 0.0 0.0 0.00 0.00 0.00 76 1017.8
20180919055118 56 114 0.0 0.0 0.00 0.00 0.00 76 1017.8
20180919055029 56 114 0.0 0.0 0.00 0.00 0.00 76 1017.8
20180919054917 56 114 0.0 0.0 0.00 0.00 0.00 76 1017.8
20180919054828 56 114 0.0 0.0 0.00 0.00 0.00 76 1017.8
20180919054719 56 114 0.0 0.0 0.00 0.00 0.00 76 1017.7
20180919054632 56 114 0.0 0.0 0.00 0.00 0.00 76 1017.7
20180919054520 56 114 0.0 0.0 0.00 0.00 0.00 76 1017.8
20180919054429 56 114 0.0 0.0 0.00 0.00 0.00 76 1017.8
20180919054317 56 114 0.0 0.0 0.00 0.00 0.00 76 1017.8
20180919054225 56 114 0.0 0.0 0.00 0.00 0.00 76 1017.8
20180919054118 56 114 0.0 0.0 0.00 0.00 0.00 76 1017.7
20180919054029 56 114 0.0 0.0 0.00 0.00 0.00 76 1017.7
20180919053917 56 114 0.0 0.0 0.00 0.00 0.00 76 1017.7
20180919053828 56 114 0.0 0.0 0.00 0.00 0.00 76 1017.7
20180919053717 56 114 0.0 0.0 0.00 0.00 0.00 75 1017.8
20180919053629 56 114 0.0 0.0 0.00 0.00 0.00 75 1017.8
20180919053517 56 114 0.0 0.0 0.00 0.00 0.00 75 1017.7
20180919053425 56 114 0.0 0.0 0.00 0.00 0.00 75 1017.7
20180919053333 56 114 0.0 1.0 0.00 0.00 0.00 75 1017.6
20180919053221 56 114 0.0 1.0 0.00 0.00 0.00 76 1017.7
20180919053130 56 114 0.0 2.0 0.00 0.00 0.00 76 1017.7
20180919053022 56 114 0.0 2.0 0.00 0.00 0.00 75 1017.6
20180919052930 56 115 0.0 2.0 0.00 0.00 0.00 75 1017.7
20180919052818 56 115 0.0 2.0 0.00 0.00 0.00 75 1017.7
20180919052729 56 115 0.0 2.0 0.00 0.00 0.00 75 1017.7
20180919052617 56 115 0.0 3.0 0.00 0.00 0.00 75 1017.7
20180919052530 56 115 0.0 3.0 0.00 0.00 0.00 75 1017.7
20180919052417 56 115 0.0 3.0 0.00 0.00 0.00 75 1017.7
20180919052327 56 115 1.0 3.0 0.00 0.00 0.00 75 1017.7
20180919052218 56 116 0.0 3.0 0.00 0.00 0.00 75 1017.7
20180919052129 56 117 0.0 3.0 0.00 0.00 0.00 75 1017.7
20180919052021 56 117 0.0 3.0 0.00 0.00 0.00 75 1017.8
20180919051929 56 117 1.0 3.0 0.00 0.00 0.00 75 1017.8
20180919051818 56 120 2.0 3.0 0.00 0.00 0.00 75 1017.8
20180919051726 56 120 2.0 3.0 0.00 0.00 0.00 75 1017.8
20180919051614 56 116 1.0 2.0 0.00 0.00 0.00 75 1017.8
20180919051529 56 109 0.0 0.0 0.00 0.00 0.00 75 1017.8
20180919051417 56 109 0.0 0.0 0.00 0.00 0.00 75 1017.8
20180919051326 56 109 0.0 0.0 0.00 0.00 0.00 75 1017.8
20180919051234 56 109 0.0 0.0 0.00 0.00 0.00 75 1017.8
20180919051122 56 109 0.0 1.0 0.00 0.00 0.00 75 1017.8
20180919051017 56 109 0.0 1.0 0.00 0.00 0.00 75 1017.8
20180919050925 56 109 0.0 1.0 0.00 0.00 0.00 75 1017.8
20180919050833 56 109 0.0 2.0 0.00 0.00 0.00 75 1017.8
20180919050722 56 109 0.0 2.0 0.00 0.00 0.00 75 1017.8
20180919050630 56 109 0.0 2.0 0.00 0.00 0.00 75 1017.8
20180919050518 56 109 0.0 2.0 0.00 0.00 0.00 75 1017.8
20180919050433 57 109 0.0 3.0 0.00 0.00 0.00 75 1017.8
20180919050323 57 109 0.0 3.0 0.00 0.00 0.00 75 1017.8
20180919050230 57 109 0.0 3.0 0.00 0.00 0.00 74 1017.8
20180919050130 57 109 0.0 3.0 0.00 0.00 0.00 74 1017.8
20180919050027 57 109 1.0 3.0 0.00 0.00 0.00 74 1017.8
20180919045919 57 78 0.0 3.0 0.00 0.00 0.00 74 1017.8
20180919045827 57 78 1.0 3.0 0.00 0.00 0.00 74 1017.8
20180919045715 57 80 1.0 3.0 0.00 0.00 0.00 74 1017.8
20180919045624 57 105 1.0 3.0 0.00 0.00 0.00 74 1017.8
20180919045532 57 86 1.0 3.0 0.00 0.00 0.00 74 1017.8
20180919045423 57 99 1.0 3.0 0.00 0.00 0.00 74 1017.8
20180919045331 57 99 1.0 3.0 0.00 0.00 0.00 74 1017.8
20180919045219 57 103 1.0 3.0 0.00 0.00 0.00 74 1017.8
20180919045127 57 105 0.0 3.0 0.00 0.00 0.00 74 1017.8
20180919045016 57 105 0.0 3.0 0.00 0.00 0.00 74 1017.8
20180919044924 57 105 0.0 3.0 0.00 0.00 0.00 74 1017.8
20180919044815 57 105 0.0 3.0 0.00 0.00 0.00 74 1017.8
20180919044727 57 105 0.0 3.0 0.00 0.00 0.00 74 1017.8
20180919044615 57 105 0.0 3.0 0.00 0.00 0.00 74 1017.9
20180919044527 57 105 0.0 3.0 0.00 0.00 0.00 74 1017.9
20180919044417 57 105 1.0 3.0 0.00 0.00 0.00 74 1017.9
20180919044331 57 105 2.0 3.0 0.00 0.00 0.00 74 1017.9
20180919044222 57 105 1.0 3.0 0.00 0.00 0.00 74 1017.9
20180919044130 57 105 0.0 1.0 0.00 0.00 0.00 74 1017.9
20180919044018 57 105 0.0 1.0 0.00 0.00 0.00 74 1017.9
20180919043926 57 105 0.0 1.0 0.00 0.00 0.00 74 1017.9
20180919043818 57 105 0.0 1.0 0.00 0.00 0.00 74 1018.0
20180919043727 57 105 0.0 1.0 0.00 0.00 0.00 74 1018.0
20180919043615 57 105 0.0 1.0 0.00 0.00 0.00 73 1017.9
20180919043523 57 105 0.0 1.0 0.00 0.00 0.00 73 1017.9
20180919043431 57 105 0.0 1.0 0.00 0.00 0.00 73 1018.0
20180919043324 57 105 1.0 1.0 0.00 0.00 0.00 73 1018.0
20180919043215 57 105 0.0 1.0 0.00 0.00 0.00 73 1018.0
20180919043126 57 105 0.0 0.0 0.00 0.00 0.00 73 1018.0
20180919043034 57 105 0.0 2.0 0.00 0.00 0.00 73 1018.0
20180919042922 57 105 0.0 3.0 0.00 0.00 0.00 73 1018.0
20180919042830 57 105 0.0 4.0 0.00 0.00 0.00 73 1017.9
20180919042723 57 105 0.0 4.0 0.00 0.00 0.00 72 1018.0
20180919042631 57 105 0.0 4.0 0.00 0.00 0.00 72 1018.0
20180919042519 57 105 0.0 4.0 0.00 0.00 0.00 72 1017.9
20180919042428 57 105 0.0 4.0 0.00 0.00 0.00 72 1017.9
20180919042319 57 105 0.0 4.0 0.00 0.00 0.00 72 1017.9
20180919042231 57 105 0.0 4.0 0.00 0.00 0.00 72 1017.9
20180919042119 57 105 1.0 4.0 0.00 0.00 0.00 72 1017.9
20180919042028 57 105 2.0 4.0 0.00 0.00 0.00 72 1017.9
20180919041916 57 83 0.0 2.0 0.00 0.00 0.00 72 1017.9
20180919041827 57 83 0.0 3.0 0.00 0.00 0.00 72 1017.9
20180919041719 57 83 0.0 3.0 0.00 0.00 0.00 71 1018.0
20180919041627 57 83 0.0 3.0 0.00 0.00 0.00 71 1018.0
20180919041516 57 83 0.0 3.0 0.00 0.00 0.00 71 1017.9
20180919041423 57 83 0.0 3.0 0.00 0.00 0.00 71 1017.9
20180919041333 57 83 1.0 3.0 0.00 0.00 0.00 71 1018.0
20180919041225 57 83 1.0 3.0 0.00 0.00 0.00 71 1017.9
20180919041133 57 83 1.0 3.0 0.00 0.00 0.00 71 1017.9
20180919041022 57 83 1.0 3.0 0.00 0.00 0.00 71 1017.9
20180919040929 57 69 0.0 0.0 0.00 0.00 0.00 71 1017.9
20180919040818 57 69 0.0 0.0 0.00 0.00 0.00 71 1017.9
20180919040713 57 69 0.0 0.0 0.00 0.00 0.00 71 1017.9
20180919040624 57 69 0.0 0.0 0.00 0.00 0.00 71 1017.9
20180919040515 57 69 0.0 2.0 0.00 0.00 0.00 71 1017.9
20180919040426 57 69 0.0 2.0 0.00 0.00 0.00 71 1017.9
20180919040335 57 69 0.0 2.0 0.00 0.00 0.00 70 1017.9
20180919040223 57 69 0.0 2.0 0.00 0.00 0.00 70 1017.9
20180919040146 57 69 0.0 2.0 0.00 0.00 0.00 70 1017.9
20180919040023 57 69 0.0 2.0 0.00 0.00 0.00 70 1017.9
20180919035934 57 69 0.0 2.0 0.00 0.00 0.00 70 1017.9
20180919035822 57 69 0.0 2.0 0.00 0.00 0.00 70 1017.9
20180919035734 57 69 1.0 2.0 0.00 0.00 0.00 70 1017.9
20180919035626 57 69 1.0 2.0 0.00 0.00 0.00 70 1017.9
20180919035534 57 69 1.0 2.0 0.00 0.00 0.00 70 1018.0
20180919035422 57 69 0.0 2.0 0.00 0.00 0.00 70 1017.9
20180919035331 57 69 1.0 2.0 0.00 0.00 0.00 70 1017.9
20180919035220 57 69 1.0 2.0 0.00 0.00 0.00 70 1018.0
20180919035115 57 69 1.0 2.0 0.00 0.00 0.00 70 1017.9
20180919035026 57 69 0.0 2.0 0.00 0.00 0.00 70 1017.9
20180919034914 57 69 0.0 2.0 0.00 0.00 0.00 70 1017.9
20180919034825 57 69 0.0 2.0 0.00 0.00 0.00 70 1017.9
20180919034734 57 69 0.0 2.0 0.00 0.00 0.00 69 1017.9
20180919034625 57 69 0.0 2.0 0.00 0.00 0.00 69 1017.9
20180919034534 57 69 0.0 2.0 0.00 0.00 0.00 69 1017.9
20180919034422 57 69 1.0 2.0 0.00 0.00 0.00 69 1017.9
20180919034333 57 69 1.0 2.0 0.00 0.00 0.00 69 1017.9
20180919034221 58 69 1.0 2.0 0.00 0.00 0.00 69 1017.9
20180919034130 58 67 0.0 0.0 0.00 0.00 0.00 69 1017.9
20180919034022 58 67 0.0 0.0 0.00 0.00 0.00 69 1017.9
20180919033929 58 66 0.0 0.0 0.00 0.00 0.00 69 1018.0
20180919033817 58 65 0.0 0.0 0.00 0.00 0.00 69 1017.9
20180919033729 58 65 0.0 0.0 0.00 0.00 0.00 69 1017.9
20180919033620 58 65 0.0 0.0 0.00 0.00 0.00 69 1018.0
20180919033536 58 65 0.0 0.0 0.00 0.00 0.00 69 1018.0
20180919033425 58 47 0.0 0.0 0.00 0.00 0.00 69 1018.0
20180919033315 58 47 0.0 0.0 0.00 0.00 0.00 68 1018.0
20180919033227 58 47 0.0 0.0 0.00 0.00 0.00 68 1018.0
20180919033136 58 47 0.0 1.0 0.00 0.00 0.00 68 1017.9
20180919033027 58 47 0.0 1.0 0.00 0.00 0.00 68 1018.0
20180919032935 58 47 0.0 1.0 0.00 0.00 0.00 68 1017.9
20180919032823 58 47 0.0 2.0 0.00 0.00 0.00 68 1018.0
20180919032735 58 47 0.0 2.0 0.00 0.00 0.00 68 1017.9
20180919032623 58 47 0.0 2.0 0.00 0.00 0.00 68 1018.0
20180919032518 58 47 0.0 2.0 0.00 0.00 0.00 68 1018.0
20180919032428 58 47 0.0 2.0 0.00 0.00 0.00 68 1018.0
20180919032319 58 47 0.0 2.0 0.00 0.00 0.00 68 1017.9
20180919032227 58 47 0.0 2.0 0.00 0.00 0.00 68 1017.9
20180919032135 58 47 0.0 2.0 0.00 0.00 0.00 68 1018.0
20180919032027 58 47 1.0 2.0 0.00 0.00 0.00 68 1018.0
20180919031918 58 47 0.0 2.0 0.00 0.00 0.00 68 1018.0
20180919031826 58 47 0.0 2.0 0.00 0.00 0.00 68 1018.0
20180919031717 58 47 0.0 2.0 0.00 0.00 0.00 68 1018.0
20180919031626 58 47 1.0 2.0 0.00 0.00 0.00 68 1018.0
20180919031518 58 47 1.0 3.0 0.00 0.00 0.00 68 1018.0
20180919031429 58 47 1.0 3.0 0.00 0.00 0.00 68 1018.0
20180919031321 58 47 0.0 3.0 0.00 0.00 0.00 68 1018.0
20180919031229 58 47 0.0 3.0 0.00 0.00 0.00 68 1018.0
20180919031118 58 47 1.0 3.0 0.00 0.00 0.00 68 1018.0
20180919031026 58 47 1.0 3.0 0.00 0.00 0.00 68 1018.0
20180919030918 58 47 0.0 3.0 0.00 0.00 0.00 67 1018.0
20180919030829 58 47 1.0 3.0 0.00 0.00 0.00 67 1018.0
20180919030717 58 47 1.0 3.0 0.00 0.00 0.00 67 1018.0
20180919030629 58 68 1.0 3.0 0.00 0.00 0.00 67 1018.0
20180919030517 58 16 1.0 2.0 0.00 0.00 0.00 68 1018.0
20180919030430 58 13 0.0 1.0 0.00 0.00 0.00 68 1018.0
20180919030317 58 13 0.0 1.0 0.00 0.00 0.00 68 1018.0
20180919030225 58 13 0.0 1.0 0.00 0.00 0.00 67 1018.0
20180919030144 58 13 0.0 1.0 0.00 0.00 0.00 67 1018.0
20180919030022 59 13 0.0 1.0 0.00 0.00 0.00 67 1018.0
20180919025913 59 13 0.0 1.0 0.00 0.00 0.00 67 1017.9
20180919025825 59 13 0.0 1.0 0.00 0.00 0.00 67 1017.9
20180919025716 59 13 0.0 1.0 0.00 0.00 0.00 67 1017.9
20180919025624 59 13 0.0 0.0 0.00 0.00 0.00 67 1017.9
20180919025516 59 13 0.0 1.0 0.00 0.00 0.00 67 1018.0
20180919025431 59 13 0.0 2.0 0.00 0.00 0.00 67 1018.0
20180919025319 59 13 0.0 2.0 0.00 0.00 0.00 67 1017.9
20180919025228 59 13 0.0 2.0 0.00 0.00 0.00 67 1017.9
20180919025116 59 13 0.0 2.0 0.00 0.00 0.00 67 1017.9
20180919025024 59 13 0.0 2.0 0.00 0.00 0.00 67 1017.9
20180919024916 59 13 0.0 2.0 0.00 0.00 0.00 67 1018.0
20180919024827 59 13 0.0 2.0 0.00 0.00 0.00 67 1018.0
20180919024716 59 13 0.0 2.0 0.00 0.00 0.00 67 1017.9
20180919024627 59 13 1.0 2.0 0.00 0.00 0.00 67 1017.9
20180919024535 59 13 0.0 2.0 0.00 0.00 0.00 67 1018.0
20180919024423 59 13 0.0 2.0 0.00 0.00 0.00 67 1018.0
20180919024335 59 13 0.0 2.0 0.00 0.00 0.00 67 1017.9
20180919024224 59 13 0.0 2.0 0.00 0.00 0.00 66 1017.9
20180919024115 59 13 0.0 2.0 0.00 0.00 0.00 66 1017.9
20180919024027 59 13 0.0 2.0 0.00 0.00 0.00 66 1017.9
20180919023917 59 341 0.0 0.0 0.00 0.00 0.00 66 1017.9
20180919023829 59 341 0.0 1.0 0.00 0.00 0.00 66 1017.9
20180919023718 59 341 0.0 2.0 0.00 0.00 0.00 66 1017.9
20180919023628 59 341 0.0 2.0 0.00 0.00 0.00 66 1017.9
20180919023517 59 341 0.0 2.0 0.00 0.00 0.00 66 1017.9
20180919023426 59 341 0.0 2.0 0.00 0.00 0.00 66 1017.9
20180919023318 59 341 0.0 2.0 0.00 0.00 0.00 66 1017.9
20180919023227 59 341 0.0 2.0 0.00 0.00 0.00 66 1017.9
20180919023135 59 341 0.0 2.0 0.00 0.00 0.00 66 1017.9
20180919023023 59 341 0.0 2.0 0.00 0.00 0.00 66 1018.0
20180919022931 59 341 1.0 3.0 0.00 0.00 0.00 66 1017.9
20180919022823 59 341 1.0 5.0 0.00 0.00 0.00 66 1017.9
20180919022732 60 295 0.0 6.0 0.00 0.00 0.00 66 1017.9
20180919022619 60 295 0.0 6.0 0.00 0.00 0.00 66 1017.9
20180919022528 60 295 0.0 6.0 0.00 0.00 0.00 65 1017.9
20180919022415 60 294 1.0 6.0 0.00 0.00 0.00 65 1017.8
20180919022325 60 328 1.0 6.0 0.00 0.00 0.00 65 1017.8
20180919022218 60 329 0.0 6.0 0.00 0.00 0.00 65 1017.9
20180919022125 60 325 1.0 6.0 0.00 0.00 0.00 65 1017.9
20180919022016 60 336 3.0 6.0 0.00 0.00 0.00 65 1017.9
20180919021924 60 296 3.0 6.0 0.00 0.00 0.00 65 1017.9
20180919021832 60 309 2.0 6.0 0.00 0.00 0.00 65 1017.8
20180919021725 60 317 2.0 6.0 0.00 0.00 0.00 65 1017.8
20180919021633 60 315 3.0 6.0 0.00 0.00 0.00 65 1017.9
20180919021522 60 5 2.0 6.0 0.00 0.00 0.00 65 1017.8
20180919021429 60 313 1.0 6.0 0.00 0.00 0.00 65 1017.9
20180919021317 60 333 2.0 6.0 0.00 0.00 0.00 65 1017.8
20180919021230 60 299 2.0 6.0 0.00 0.00 0.00 65 1017.8
20180919021118 60 330 3.0 6.0 0.00 0.00 0.00 65 1017.8
20180919021029 60 346 2.0 6.0 0.00 0.00 0.00 65 1017.8
20180919020917 60 297 2.0 6.0 0.00 0.00 0.00 65 1017.7
20180919020825 60 290 3.0 6.0 0.00 0.00 0.00 65 1017.7
20180919020718 61 313 3.0 6.0 0.00 0.00 0.00 65 1017.7
20180919020629 61 295 3.0 6.0 0.00 0.00 0.00 65 1017.7
20180919020517 61 348 1.0 6.0 0.00 0.00 0.00 65 1017.6
20180919020425 61 350 2.0 6.0 0.00 0.00 0.00 64 1017.6
20180919020335 61 308 2.0 7.0 0.00 0.00 0.00 64 1017.6
20180919020222 61 317 1.0 7.0 0.00 0.00 0.00 64 1017.7
20180919020146 61 313 2.0 7.0 0.00 0.00 0.00 64 1017.7
20180919020020 61 355 2.0 7.0 0.00 0.00 0.00 64 1017.7
20180919015931 61 289 1.0 7.0 0.00 0.00 0.00 64 1017.6
20180919015819 61 305 2.0 7.0 0.00 0.00 0.00 64 1017.6
20180919015731 61 305 3.0 7.0 0.00 0.00 0.00 64 1017.7
20180919015625 61 300 3.0 7.0 0.00 0.00 0.00 64 1017.6
20180919015534 61 296 4.0 7.0 0.00 0.00 0.00 64 1017.7
20180919015422 61 293 3.0 7.0 0.00 0.00 0.00 64 1017.7
20180919015331 61 296 3.0 7.0 0.00 0.00 0.00 64 1017.6
20180919015219 61 312 4.0 7.0 0.00 0.00 0.00 64 1017.6
20180919015131 61 309 2.0 6.0 0.00 0.00 0.00 64 1017.6
20180919015023 61 296 2.0 6.0 0.00 0.00 0.00 65 1017.6
20180919014930 62 304 1.0 9.0 0.00 0.00 0.00 64 1017.7
20180919014819 62 304 4.0 9.0 0.00 0.00 0.00 64 1017.6
20180919014727 62 323 4.0 9.0 0.00 0.00 0.00 64 1017.6
20180919014619 62 300 3.0 9.0 0.00 0.00 0.00 64 1017.6
20180919014530 62 307 2.0 9.0 0.00 0.00 0.00 65 1017.6
20180919014419 62 302 2.0 9.0 0.00 0.00 0.00 64 1017.6
20180919014327 62 292 2.0 9.0 0.00 0.00 0.00 64 1017.6
20180919014235 62 321 2.0 9.0 0.00 0.00 0.00 64 1017.6
20180919014123 62 327 5.0 9.0 0.00 0.00 0.00 64 1017.6
20180919014015 62 304 2.0 6.0 0.00 0.00 0.00 64 1017.6
20180919013926 62 304 4.0 6.0 0.00 0.00 0.00 64 1017.6
20180919013835 62 329 3.0 6.0 0.00 0.00 0.00 64 1017.6
20180919013723 62 292 3.0 6.0 0.00 0.00 0.00 64 1017.7
20180919013631 62 296 2.0 6.0 0.00 0.00 0.00 64 1017.7
20180919013523 62 355 3.0 6.0 0.00 0.00 0.00 64 1017.6
20180919013414 62 315 3.0 6.0 0.00 0.00 0.00 64 1017.7
20180919013326 62 289 3.0 6.0 0.00 0.00 0.00 64 1017.7
20180919013235 62 298 3.0 6.0 0.00 0.00 0.00 64 1017.6
20180919013122 62 338 3.0 6.0 0.00 0.00 0.00 63 1017.6
20180919013019 62 231 3.0 7.0 0.00 0.00 0.00 63 1017.5
20180919012929 62 293 3.0 7.0 0.00 0.00 0.00 63 1017.5
20180919012817 63 294 3.0 7.0 0.00 0.00 0.00 63 1017.6
20180919012726 63 301 3.0 7.0 0.00 0.00 0.00 63 1017.6
20180919012634 63 298 3.0 7.0 0.00 0.00 0.00 63 1017.5
20180919012526 63 19 3.0 7.0 0.00 0.00 0.00 62 1017.5
20180919012417 63 333 3.0 7.0 0.00 0.00 0.00 62 1017.5
20180919012325 63 351 3.0 7.0 0.00 0.00 0.00 62 1017.5
20180919012216 63 329 3.0 7.0 0.00 0.00 0.00 62 1017.5
20180919012128 63 349 3.0 6.0 0.00 0.00 0.00 62 1017.5
20180919012023 63 287 3.0 7.0 0.00 0.00 0.00 62 1017.5
20180919011931 63 304 2.0 7.0 0.00 0.00 0.00 62 1017.5
20180919011819 63 292 2.0 9.0 0.00 0.00 0.00 62 1017.6
20180919011727 63 289 2.0 9.0 0.00 0.00 0.00 62 1017.6
20180919011616 63 331 1.0 9.0 0.00 0.00 0.00 62 1017.6
20180919011527 63 329 2.0 9.0 0.00 0.00 0.00 62 1017.6
20180919011421 63 314 3.0 9.0 0.00 0.00 0.00 61 1017.6
20180919011331 63 300 2.0 9.0 0.00 0.00 0.00 61 1017.6
20180919011222 63 292 4.0 9.0 0.00 0.00 0.00 61 1017.6
20180919011133 63 348 3.0 9.0 0.00 0.00 0.00 61 1017.6
20180919011022 63 312 4.0 9.0 0.00 0.00 0.00 60 1017.6
20180919010933 63 293 5.0 9.0 0.00 0.00 0.00 60 1017.7
20180919010821 63 304 2.0 6.0 0.00 0.00 0.00 60 1017.7
20180919010730 63 332 2.0 6.0 0.00 0.00 0.00 60 1017.6
20180919010621 64 306 4.0 6.0 0.00 0.00 0.00 60 1017.6
20180919010529 64 348 4.0 7.0 0.00 0.00 0.00 60 1017.6
20180919010424 64 335 2.0 7.0 0.00 0.00 0.00 60 1017.6
20180919010334 64 300 4.0 7.0 0.00 0.00 0.00 60 1017.6
20180919010222 64 13 3.0 7.0 0.00 0.00 0.00 59 1017.6
20180919010141 64 346 4.0 7.0 0.00 0.00 0.00 59 1017.6
20180919010019 64 311 3.0 7.0 0.00 0.00 0.00 59 1017.5
20180919005930 64 302 2.0 11.0 0.00 0.00 0.00 59 1017.5
20180919005819 64 307 3.0 11.0 0.00 0.00 0.00 59 1017.6
20180919005730 64 304 3.0 11.0 0.00 0.00 0.00 59 1017.5
20180919005618 64 313 3.0 11.0 0.00 0.00 0.00 59 1017.6
20180919005526 64 293 3.0 11.0 0.00 0.00 0.00 59 1017.6
20180919005418 64 332 5.0 11.0 0.00 0.00 0.00 59 1017.6
20180919005326 64 310 4.0 11.0 0.00 0.00 0.00 59 1017.6
20180919005218 64 289 1.0 11.0 0.00 0.00 0.00 59 1017.6
20180919005126 64 288 4.0 11.0 0.00 0.00 0.00 59 1017.6
20180919005034 65 283 6.0 11.0 0.00 0.00 0.00 59 1017.6
20180919004922 65 302 4.0 8.0 0.00 0.00 0.00 59 1017.6
20180919004814 65 321 5.0 8.0 0.00 0.00 0.00 59 1017.6
20180919004726 65 300 4.0 7.0 0.00 0.00 0.00 59 1017.6
20180919004616 65 301 3.0 10.0 0.00 0.00 0.00 59 1017.6
20180919004525 65 333 3.0 10.0 0.00 0.00 0.00 59 1017.6
20180919004416 65 292 3.0 10.0 0.00 0.00 0.00 59 1017.6
20180919004333 65 289 4.0 10.0 0.00 0.00 0.00 59 1017.6
20180919004223 65 306 4.0 10.0 0.00 0.00 0.00 59 1017.6
20180919004134 65 297 3.0 10.0 0.00 0.00 0.00 59 1017.6
20180919004023 65 327 3.0 10.0 0.00 0.00 0.00 59 1017.6
20180919003931 65 323 4.0 10.0 0.00 0.00 0.00 59 1017.6
20180919003823 65 355 5.0 10.0 0.00 0.00 0.00 59 1017.6
20180919003713 65 317 2.0 9.0 0.00 0.00 0.00 59 1017.6
20180919003624 65 303 3.0 9.0 0.00 0.00 0.00 60 1017.6
20180919003513 65 300 1.0 9.0 0.00 0.00 0.00 60 1017.6
20180919003425 65 279 2.0 9.0 0.00 0.00 0.00 60 1017.6
20180919003317 65 279 2.0 9.0 0.00 0.00 0.00 59 1017.6
20180919003228 65 308 3.0 10.0 0.00 0.00 0.00 59 1017.6
20180919003116 65 286 5.0 10.0 0.00 0.00 0.00 59 1017.6
20180919003025 65 292 4.0 10.0 0.00 0.00 0.00 59 1017.6
20180919002932 65 294 4.0 10.0 0.00 0.00 0.00 59 1017.6
20180919002825 65 339 3.0 12.0 0.00 0.00 0.00 60 1017.6
20180919002733 65 311 3.0 12.0 0.00 0.00 0.00 59 1017.6
20180919002621 65 337 4.0 12.0 0.00 0.00 0.00 59 1017.5
20180919002529 65 338 3.0 12.0 0.00 0.00 0.00 60 1017.5
20180919002417 65 313 6.0 12.0 0.00 0.00 0.00 59 1017.5
20180919002326 65 271 6.0 12.0 0.00 0.00 0.00 60 1017.5
20180919002219 65 290 5.0 12.0 0.00 0.00 0.00 60 1017.5
20180919002130 65 323 5.0 12.0 0.00 0.00 0.00 60 1017.5
20180919002018 65 300 5.0 12.0 0.00 0.00 0.00 60 1017.6
20180919001926 65 286 7.0 12.0 0.00 0.00 0.00 60 1017.6
20180919001834 65 300 6.0 12.0 0.00 0.00 0.00 59 1017.6
20180919001726 65 297 8.0 12.0 0.00 0.00 0.00 59 1017.6
20180919001618 65 304 5.0 12.0 0.00 0.00 0.00 60 1017.4
20180919001529 65 288 3.0 10.0 0.00 0.00 0.00 60 1017.4
20180919001417 65 296 5.0 10.0 0.00 0.00 0.00 60 1017.5
20180919001329 65 286 6.0 10.0 0.00 0.00 0.00 59 1017.5
20180919001222 66 342 5.0 10.0 0.00 0.00 0.00 60 1017.6
20180919001129 66 296 5.0 10.0 0.00 0.00 0.00 60 1017.5
20180919001018 66 301 4.0 10.0 0.00 0.00 0.00 60 1017.5
20180919000929 66 303 3.0 10.0 0.00 0.00 0.00 60 1017.5
20180919000817 66 340 5.0 10.0 0.00 0.00 0.00 60 1017.5
20180919000730 66 274 6.0 10.0 0.00 0.00 0.00 60 1017.5
20180919000617 66 294 6.0 10.0 0.00 0.00 0.00 60 1017.4
20180919000526 66 310 4.0 10.0 0.00 0.00 0.00 60 1017.4
20180919000434 66 327 4.0 10.0 0.00 0.00 0.00 60 1017.4
20180919000324 66 307 7.0 10.0 0.00 0.00 0.00 60 1017.4
20180919000231 66 315 7.0 10.0 0.00 0.00 0.00 60 1017.5
20180919000134 66 328 4.0 9.0 0.00 0.00 0.00 60 1017.5
20180919000029 66 260 5.0 9.0 0.00 0.00 0.00 60 1017.4
20180918235917 66 5 5.0 9.0 0.00 0.00 0.00 60 1017.4
20180918235828 66 300 3.0 9.0 0.00 0.00 0.00 59 1017.4
20180918235716 66 308 6.0 9.0 0.00 0.00 0.00 59 1017.5
20180918235629 66 304 5.0 9.0 0.00 0.00 0.00 59 1017.5
20180918235520 66 321 5.0 9.0 0.00 0.00 0.00 59 1017.5
20180918235428 66 316 5.0 9.0 0.00 0.00 0.00 60 1017.5
20180918235319 66 296 3.0 7.0 0.00 0.00 0.00 60 1017.5
20180918235227 66 292 4.0 7.0 0.00 0.00 0.00 60 1017.5
20180918235119 66 290 3.0 7.0 0.00 0.00 0.00 59 1017.4
20180918235028 66 350 3.0 7.0 0.00 0.00 0.00 59 1017.4
20180918234935 66 19 3.0 7.0 0.00 0.00 0.00 59 1017.5
20180918234823 66 10 3.0 7.0 0.00 0.00 0.00 59 1017.5
20180918234732 67 296 5.0 7.0 0.00 0.00 0.00 59 1017.4
20180918234624 67 294 5.0 7.0 0.00 0.00 0.00 59 1017.4
20180918234533 67 328 3.0 7.0 0.00 0.00 0.00 59 1017.4
20180918234423 67 308 2.0 7.0 0.00 0.00 0.00 59 1017.4
20180918234332 66 302 4.0 7.0 0.00 0.00 0.00 59 1017.5
20180918234220 67 296 3.0 7.0 0.00 0.00 0.00 59 1017.6
20180918234128 67 291 3.0 7.0 0.00 0.00 0.00 59 1017.6
20180918234020 67 296 3.0 7.0 0.00 0.00 0.00 59 1017.6
20180918233931 67 329 3.0 7.0 0.00 0.00 0.00 59 1017.5
20180918233819 67 339 2.0 7.0 0.00 0.00 0.00 59 1017.5
20180918233730 67 336 4.0 7.0 0.00 0.00 0.00 59 1017.6
20180918233621 67 339 4.0 7.0 0.00 0.00 0.00 59 1017.5
20180918233517 67 286 3.0 7.0 0.00 0.00 0.00 59 1017.6
20180918233425 67 271 4.0 7.0 0.00 0.00 0.00 59 1017.6
20180918233335 67 340 4.0 6.0 0.00 0.00 0.00 60 1017.5
20180918233222 67 281 4.0 6.0 0.00 0.00 0.00 60 1017.6
20180918233131 67 292 2.0 4.0 0.00 0.00 0.00 60 1017.6
20180918233023 67 292 1.0 6.0 0.00 0.00 0.00 59 1017.6
20180918232931 67 293 2.0 6.0 0.00 0.00 0.00 59 1017.6
20180918232819 67 350 1.0 7.0 0.00 0.00 0.00 59 1017.6
20180918232728 67 20 1.0 10.0 0.00 0.00 0.00 59 1017.6
20180918232615 67 355 2.0 10.0 0.00 0.00 0.00 59 1017.6
20180918232528 67 286 2.0 10.0 0.00 0.00 0.00 59 1017.6
20180918232415 67 273 3.0 10.0 0.00 0.00 0.00 58 1017.6
20180918232325 67 322 3.0 10.0 0.00 0.00 0.00 58 1017.6
20180918232216 67 329 4.0 10.0 0.00 0.00 0.00 58 1017.6
20180918232127 67 350 3.0 10.0 0.00 0.00 0.00 58 1017.6
20180918232020 67 284 4.0 10.0 0.00 0.00 0.00 59 1017.6
20180918231928 67 284 5.0 10.0 0.00 0.00 0.00 58 1017.6
20180918231815 67 298 5.0 10.0 0.00 0.00 0.00 59 1017.7
20180918231724 67 297 5.0 9.0 0.00 0.00 0.00 59 1017.7
20180918231632 67 302 4.0 7.0 0.00 0.00 0.00 59 1017.7
20180918231523 67 326 4.0 7.0 0.00 0.00 0.00 59 1017.7
20180918231418 67 320 4.0 7.0 0.00 0.00 0.00 59 1017.7
20180918231328 67 326 4.0 7.0 0.00 0.00 0.00 59 1017.7
20180918231216 66 289 3.0 7.0 0.00 0.00 0.00 59 1017.6
20180918231124 66 260 4.0 7.0 0.00 0.00 0.00 59 1017.6
20180918231032 66 300 4.0 7.0 0.00 0.00 0.00 59 1017.7
20180918230924 66 82 1.0 6.0 0.00 0.00 0.00 60 1017.7
20180918230832 66 216 0.0 6.0 0.00 0.00 0.00 59 1017.7
20180918230721 66 216 0.0 6.0 0.00 0.00 0.00 59 1017.7
20180918230629 66 230 0.0 6.0 0.00 0.00 0.00 59 1017.7
20180918230517 66 172 2.0 6.0 0.00 0.00 0.00 59 1017.7
20180918230430 66 176 2.0 6.0 0.00 0.00 0.00 59 1017.7
20180918230318 66 235 5.0 9.0 0.00 0.00 0.00 59 1017.7
20180918230227 66 254 4.0 9.0 0.00 0.00 0.00 59 1017.7
20180918230146 66 296 2.0 9.0 0.00 0.00 0.00 59 1017.7
20180918230023 66 360 0.0 9.0 0.00 0.00 0.00 58 1017.7
20180918225931 66 360 0.0 9.0 0.00 0.00 0.00 58 1017.7
20180918225823 66 360 1.0 9.0 0.00 0.00 0.00 58 1017.7
20180918225731 67 360 3.0 9.0 0.00 0.00 0.00 58 1017.8
20180918225619 67 355 4.0 9.0 0.00 0.00 0.00 59 1017.8
20180918225528 67 5 3.0 9.0 0.00 0.00 0.00 59 1017.8
20180918225415 67 313 4.0 9.0 0.00 0.00 0.00 58 1017.8
20180918225329 67 346 3.0 10.0 0.00 0.00 0.00 58 1017.8
20180918225217 67 302 5.0 10.0 0.00 0.00 0.00 58 1017.8
20180918225128 67 310 4.0 10.0 0.00 0.00 0.00 58 1017.8
20180918225016 67 338 5.0 10.0 0.00 0.00 0.00 58 1017.8
20180918224925 67 355 3.0 10.0 0.00 0.00 0.00 58 1017.8
20180918224817 67 315 4.0 10.0 0.00 0.00 0.00 58 1017.8
20180918224725 67 5 4.0 10.0 0.00 0.00 0.00 58 1017.8
20180918224613 67 337 3.0 10.0 0.00 0.00 0.00 58 1017.8
20180918224524 67 314 6.0 10.0 0.00 0.00 0.00 58 1017.8
20180918224412 67 296 6.0 10.0 0.00 0.00 0.00 58 1017.9
20180918224329 67 335 4.0 7.0 0.00 0.00 0.00 58 1017.9
20180918224220 67 306 2.0 7.0 0.00 0.00 0.00 59 1017.9
20180918224131 67 27 3.0 7.0 0.00 0.00 0.00 59 1017.9
20180918224023 67 306 4.0 7.0 0.00 0.00 0.00 59 1017.9
20180918223930 66 319 3.0 7.0 0.00 0.00 0.00 59 1017.9
20180918223826 66 281 4.0 7.0 0.00 0.00 0.00 59 1017.9
20180918223734 66 269 4.0 7.0 0.00 0.00 0.00 59 1017.9
20180918223622 66 293 4.0 7.0 0.00 0.00 0.00 59 1017.9
20180918223531 66 304 3.0 7.0 0.00 0.00 0.00 59 1017.9